Time,TemperatureF,DewpointF,PressureIn,WindDirection,WindDirectionDegrees,WindSpeedMPH,WindSpeedGustMPH,Humidity,HourlyPrecipIn,Conditions,Clouds,dailyrainin,SoftwareType,DateUTC
2013-09-06 00:00:00,83.0,62.4,30.07,East,82,0.0,0.0,50,0.00,,,0.00,Wunderground v.1.15,2013-09-06 05:00:00,
2013-09-06 00:03:00,83.0,62.4,30.06,East,82,0.0,0.0,50,0.00,,,0.00,Wunderground v.1.15,2013-09-06 05:03:00,
2013-09-06 00:04:00,83.0,62.4,30.06,East,82,0.0,0.0,50,0.00,,,0.00,Wunderground v.1.15,2013-09-06 05:04:00,
2013-09-06 00:08:00,82.8,62.3,30.06,East,82,0.0,0.0,50,0.00,,,0.00,Wunderground v.1.15,2013-09-06 05:08:00,
2013-09-06 00:09:00,82.8,62.8,30.06,East,82,0.0,0.0,51,0.00,,,0.00,Wunderground v.1.15,2013-09-06 05:09:00,
2013-09-06 00:10:00,82.8,62.8,30.06,East,82,0.0,0.0,51,0.00,,,0.00,Wunderground v.1.15,2013-09-06 05:10:00,
2013-09-06 00:11:00,82.8,62.8,30.06,East,82,0.0,0.0,51,0.00,,,0.00,Wunderground v.1.15,2013-09-06 05:11:00,
2013-09-06 00:14:00,82.8,62.8,30.06,East,82,0.0,0.0,51,0.00,,,0.00,Wunderground v.1.15,2013-09-06 05:14:00,
2013-09-06 00:15:00,82.8,62.8,30.06,East,82,0.0,0.0,51,0.00,,,0.00,Wunderground v.1.15,2013-09-06 05:15:00,
2013-09-06 00:16:00,82.8,62.8,30.06,East,82,0.0,0.0,51,0.00,,,0.00,Wunderground v.1.15,2013-09-06 05:16:00,
2013-09-06 00:17:00,82.6,62.6,30.06,East,82,0.0,0.0,51,0.00,,,0.00,Wunderground v.1.15,2013-09-06 05:17:00,
2013-09-06 00:21:00,82.6,62.6,30.06,East,82,0.0,0.0,51,0.00,,,0.00,Wunderground v.1.15,2013-09-06 05:21:00,
2013-09-06 00:22:00,82.6,62.6,30.06,East,82,0.0,0.0,51,0.00,,,0.00,Wunderground v.1.15,2013-09-06 05:22:00,
2013-09-06 00:23:00,82.6,62.6,30.06,East,82,0.0,0.0,51,0.00,,,0.00,Wunderground v.1.15,2013-09-06 05:23:00,
2013-09-06 00:24:00,82.6,62.6,30.06,East,82,0.0,0.0,51,0.00,,,0.00,Wunderground v.1.15,2013-09-06 05:24:00,
2013-09-06 00:28:00,82.6,62.6,30.06,East,82,0.0,0.0,51,0.00,,,0.00,Wunderground v.1.15,2013-09-06 05:28:00,
2013-09-06 00:29:00,82.6,62.6,30.06,East,82,0.0,0.0,51,0.00,,,0.00,Wunderground v.1.15,2013-09-06 05:29:00,
2013-09-06 00:30:00,82.6,62.6,30.06,East,82,0.0,0.0,51,0.00,,,0.00,Wunderground v.1.15,2013-09-06 05:30:00,
2013-09-06 00:42:00,82.2,63.4,30.06,East,82,0.0,0.0,53,0.00,,,0.00,Wunderground v.1.15,2013-09-06 05:42:00,
2013-09-06 00:43:00,82.2,62.8,30.06,East,82,0.0,0.0,52,0.00,,,0.00,Wunderground v.1.15,2013-09-06 05:43:00,
2013-09-06 00:44:00,82.2,63.4,30.06,East,82,0.0,0.0,53,0.00,,,0.00,Wunderground v.1.15,2013-09-06 05:44:00,
2013-09-06 00:48:00,82.2,63.4,30.06,East,82,0.0,0.0,53,0.00,,,0.00,Wunderground v.1.15,2013-09-06 05:48:00,
2013-09-06 00:49:00,82.0,63.2,30.06,East,82,0.0,0.0,53,0.00,,,0.00,Wunderground v.1.15,2013-09-06 05:49:00,
2013-09-06 00:52:00,81.8,63.5,30.06,East,82,0.0,0.0,54,0.00,,,0.00,Wunderground v.1.15,2013-09-06 05:52:00,
2013-09-06 00:54:00,81.8,63.5,30.06,East,82,0.0,0.0,54,0.00,,,0.00,Wunderground v.1.15,2013-09-06 05:54:00,
2013-09-06 00:55:00,81.8,63.5,30.06,East,82,0.0,0.0,54,0.00,,,0.00,Wunderground v.1.15,2013-09-06 05:55:00,
2013-09-06 00:57:00,81.6,63.9,30.06,East,82,0.0,0.0,55,0.00,,,0.00,Wunderground v.1.15,2013-09-06 05:57:00,
2013-09-06 00:59:00,81.4,64.2,30.06,East,82,0.0,0.0,56,0.00,,,0.00,Wunderground v.1.15,2013-09-06 05:59:00,
2013-09-06 01:02:00,81.1,63.4,30.07,East,82,0.0,0.0,55,0.00,,,0.00,Wunderground v.1.15,2013-09-06 06:02:00,
2013-09-06 01:03:00,81.1,63.4,30.07,East,82,0.0,0.0,55,0.00,,,0.00,Wunderground v.1.15,2013-09-06 06:03:00,
2013-09-06 01:06:00,80.9,63.2,30.07,East,82,0.0,0.0,55,0.00,,,0.00,Wunderground v.1.15,2013-09-06 06:06:00,
2013-09-06 01:08:00,80.9,63.2,30.07,East,82,0.0,0.0,55,0.00,,,0.00,Wunderground v.1.15,2013-09-06 06:08:00,
2013-09-06 01:09:00,80.7,63.0,30.07,East,82,0.0,0.0,55,0.00,,,0.00,Wunderground v.1.15,2013-09-06 06:09:00,
2013-09-06 01:11:00,80.7,63.0,30.07,East,82,0.0,0.0,55,0.00,,,0.00,Wunderground v.1.15,2013-09-06 06:11:00,
2013-09-06 01:13:00,80.7,63.0,30.07,East,82,0.0,0.0,55,0.00,,,0.00,Wunderground v.1.15,2013-09-06 06:13:00,
2013-09-06 01:14:00,80.7,63.0,30.07,East,82,0.0,0.0,55,0.00,,,0.00,Wunderground v.1.15,2013-09-06 06:14:00,
2013-09-06 01:16:00,80.7,63.0,30.07,East,82,0.0,0.0,55,0.00,,,0.00,Wunderground v.1.15,2013-09-06 06:16:00,
2013-09-06 01:18:00,80.7,63.0,30.07,East,82,0.0,0.0,55,0.00,,,0.00,Wunderground v.1.15,2013-09-06 06:18:00,
2013-09-06 01:19:00,80.7,63.0,30.07,East,82,0.0,0.0,55,0.00,,,0.00,Wunderground v.1.15,2013-09-06 06:19:00,
2013-09-06 01:21:00,80.7,63.0,30.07,East,82,0.0,0.0,55,0.00,,,0.00,Wunderground v.1.15,2013-09-06 06:21:00,
2013-09-06 01:23:00,80.7,63.0,30.07,East,82,0.0,0.0,55,0.00,,,0.00,Wunderground v.1.15,2013-09-06 06:23:00,
2013-09-06 01:24:00,80.7,63.0,30.07,East,82,0.0,0.0,55,0.00,,,0.00,Wunderground v.1.15,2013-09-06 06:24:00,
2013-09-06 01:27:00,80.7,63.0,30.06,East,82,0.0,0.0,55,0.00,,,0.00,Wunderground v.1.15,2013-09-06 06:27:00,
2013-09-06 01:28:00,80.7,63.0,30.06,East,82,0.0,0.0,55,0.00,,,0.00,Wunderground v.1.15,2013-09-06 06:28:00,
2013-09-06 01:30:00,80.7,63.0,30.07,East,82,0.0,0.0,55,0.00,,,0.00,Wunderground v.1.15,2013-09-06 06:30:00,
2013-09-06 01:31:00,80.7,63.5,30.07,East,82,0.0,0.0,56,0.00,,,0.00,Wunderground v.1.15,2013-09-06 06:31:00,
2013-09-06 01:32:00,80.7,63.5,30.07,East,82,0.0,0.0,56,0.00,,,0.00,Wunderground v.1.15,2013-09-06 06:32:00,
2013-09-06 01:37:00,80.5,63.9,30.07,East,82,0.0,0.0,57,0.00,,,0.00,Wunderground v.1.15,2013-09-06 06:37:00,
2013-09-06 01:38:00,80.5,63.9,30.07,East,82,0.0,0.0,57,0.00,,,0.00,Wunderground v.1.15,2013-09-06 06:38:00,
2013-09-06 01:39:00,80.5,63.4,30.07,East,82,0.0,0.0,56,0.00,,,0.00,Wunderground v.1.15,2013-09-06 06:39:00,
2013-09-06 01:41:00,80.3,63.2,30.07,East,82,0.0,0.0,56,0.00,,,0.00,Wunderground v.1.15,2013-09-06 06:41:00,
2013-09-06 01:42:00,80.3,63.2,30.07,East,82,0.0,0.0,56,0.00,,,0.00,Wunderground v.1.15,2013-09-06 06:42:00,
2013-09-06 01:46:00,80.3,63.7,30.06,East,82,0.0,0.0,57,0.00,,,0.00,Wunderground v.1.15,2013-09-06 06:46:00,
2013-09-06 01:47:00,80.3,63.7,30.07,East,82,0.0,0.0,57,0.00,,,0.00,Wunderground v.1.15,2013-09-06 06:47:00,
2013-09-06 01:50:00,80.1,63.5,30.06,East,82,0.0,0.0,57,0.00,,,0.00,Wunderground v.1.15,2013-09-06 06:50:00,
2013-09-06 01:51:00,80.1,63.5,30.06,East,82,0.0,0.0,57,0.00,,,0.00,Wunderground v.1.15,2013-09-06 06:51:00,
2013-09-06 01:53:00,80.1,63.5,30.06,East,82,0.0,0.0,57,0.00,,,0.00,Wunderground v.1.15,2013-09-06 06:53:00,
2013-09-06 01:54:00,80.1,63.5,30.06,East,82,0.0,0.0,57,0.00,,,0.00,Wunderground v.1.15,2013-09-06 06:54:00,
2013-09-06 01:56:00,80.1,63.5,30.06,East,82,0.0,0.0,57,0.00,,,0.00,Wunderground v.1.15,2013-09-06 06:56:00,
2013-09-06 01:57:00,80.1,63.5,30.06,East,82,0.0,0.0,57,0.00,,,0.00,Wunderground v.1.15,2013-09-06 06:57:00,
2013-09-06 01:58:00,80.1,63.5,30.06,East,82,0.0,0.0,57,0.00,,,0.00,Wunderground v.1.15,2013-09-06 06:58:00,
2013-09-06 01:59:00,80.1,63.5,30.06,East,82,0.0,0.0,57,0.00,,,0.00,Wunderground v.1.15,2013-09-06 06:59:00,
2013-09-06 02:00:00,80.1,63.5,30.06,East,82,0.0,0.0,57,0.00,,,0.00,Wunderground v.1.15,2013-09-06 07:00:00,
2013-09-06 02:02:00,79.9,63.3,30.06,East,82,0.0,1.0,57,0.00,,,0.00,Wunderground v.1.15,2013-09-06 07:02:00,
2013-09-06 02:04:00,79.9,63.3,30.06,East,82,0.0,1.0,57,0.00,,,0.00,Wunderground v.1.15,2013-09-06 07:04:00,
2013-09-06 02:05:00,79.9,63.3,30.06,East,82,0.0,1.0,57,0.00,,,0.00,Wunderground v.1.15,2013-09-06 07:05:00,
2013-09-06 02:07:00,79.9,63.3,30.06,East,82,0.0,1.0,57,0.00,,,0.00,Wunderground v.1.15,2013-09-06 07:07:00,
2013-09-06 02:08:00,79.9,63.3,30.06,East,82,0.0,0.0,57,0.00,,,0.00,Wunderground v.1.15,2013-09-06 07:08:00,
2013-09-06 02:10:00,79.9,63.3,30.06,East,82,0.0,0.0,57,0.00,,,0.00,Wunderground v.1.15,2013-09-06 07:10:00,
2013-09-06 02:11:00,79.9,63.3,30.06,East,82,0.0,0.0,57,0.00,,,0.00,Wunderground v.1.15,2013-09-06 07:11:00,
2013-09-06 02:13:00,79.8,63.2,30.06,East,82,0.0,0.0,57,0.00,,,0.00,Wunderground v.1.15,2013-09-06 07:13:00,
2013-09-06 02:14:00,79.8,63.2,30.06,East,82,0.0,0.0,57,0.00,,,0.00,Wunderground v.1.15,2013-09-06 07:14:00,
2013-09-06 02:15:00,79.8,63.2,30.06,East,82,0.0,0.0,57,0.00,,,0.00,Wunderground v.1.15,2013-09-06 07:15:00,
2013-09-06 02:16:00,79.8,63.2,30.06,East,82,0.0,0.0,57,0.00,,,0.00,Wunderground v.1.15,2013-09-06 07:16:00,
2013-09-06 02:18:00,79.6,63.0,30.06,East,82,0.0,0.0,57,0.00,,,0.00,Wunderground v.1.15,2013-09-06 07:18:00,
2013-09-06 02:20:00,79.6,63.0,30.06,East,82,0.0,0.0,57,0.00,,,0.00,Wunderground v.1.15,2013-09-06 07:20:00,
2013-09-06 02:21:00,79.6,63.5,30.06,East,82,0.0,0.0,58,0.00,,,0.00,Wunderground v.1.15,2013-09-06 07:21:00,
2013-09-06 02:22:00,79.6,63.5,30.06,East,82,0.0,0.0,58,0.00,,,0.00,Wunderground v.1.15,2013-09-06 07:22:00,
2013-09-06 02:23:00,79.6,63.5,30.06,East,82,0.0,0.0,58,0.00,,,0.00,Wunderground v.1.15,2013-09-06 07:23:00,
2013-09-06 02:26:00,79.4,63.3,30.06,East,82,0.0,0.0,58,0.00,,,0.00,Wunderground v.1.15,2013-09-06 07:26:00,
2013-09-06 02:27:00,79.4,63.3,30.06,East,82,0.0,1.0,58,0.00,,,0.00,Wunderground v.1.15,2013-09-06 07:27:00,
2013-09-06 02:28:00,79.4,63.3,30.06,East,82,0.0,0.0,58,0.00,,,0.00,Wunderground v.1.15,2013-09-06 07:28:00,
2013-09-06 02:29:00,79.4,63.3,30.06,East,82,0.0,1.0,58,0.00,,,0.00,Wunderground v.1.15,2013-09-06 07:29:00,
2013-09-06 02:30:00,79.4,63.8,30.06,East,82,0.0,1.0,59,0.00,,,0.00,Wunderground v.1.15,2013-09-06 07:30:00,
2013-09-06 02:31:00,79.4,63.3,30.06,East,82,0.0,1.0,58,0.00,,,0.00,Wunderground v.1.15,2013-09-06 07:31:00,
2013-09-06 02:32:00,79.4,63.8,30.06,East,82,0.0,1.0,59,0.00,,,0.00,Wunderground v.1.15,2013-09-06 07:32:00,
2013-09-06 02:33:00,79.4,63.3,30.06,East,83,0.0,1.0,58,0.00,,,0.00,Wunderground v.1.15,2013-09-06 07:33:00,
2013-09-06 02:35:00,79.4,63.3,30.06,East,92,0.0,3.0,58,0.00,,,0.00,Wunderground v.1.15,2013-09-06 07:35:00,
2013-09-06 02:37:00,79.4,63.3,30.06,East,93,0.0,3.0,58,0.00,,,0.00,Wunderground v.1.15,2013-09-06 07:37:00,
2013-09-06 02:39:00,79.6,63.5,30.06,East,93,0.0,0.0,58,0.00,,,0.00,Wunderground v.1.15,2013-09-06 07:39:00,
2013-09-06 02:40:00,79.6,63.5,30.06,East,93,0.0,0.0,58,0.00,,,0.00,Wunderground v.1.15,2013-09-06 07:40:00,
2013-09-06 02:42:00,79.6,63.5,30.06,East,93,1.0,1.0,58,0.00,,,0.00,Wunderground v.1.15,2013-09-06 07:42:00,
2013-09-06 02:43:00,79.6,64.0,30.06,East,96,3.0,3.0,59,0.00,,,0.00,Wunderground v.1.15,2013-09-06 07:43:00,
2013-09-06 02:45:00,79.6,64.0,30.06,East,97,0.0,3.0,59,0.00,,,0.00,Wunderground v.1.15,2013-09-06 07:45:00,
2013-09-06 02:46:00,79.6,64.0,30.06,East,97,0.0,3.0,59,0.00,,,0.00,Wunderground v.1.15,2013-09-06 07:46:00,
2013-09-06 02:47:00,79.6,64.0,30.06,East,96,0.0,3.0,59,0.00,,,0.00,Wunderground v.1.15,2013-09-06 07:47:00,
2013-09-06 02:48:00,79.6,64.0,30.06,East,96,0.0,0.0,59,0.00,,,0.00,Wunderground v.1.15,2013-09-06 07:48:00,
2013-09-06 02:49:00,79.6,64.0,30.06,East,97,0.0,1.0,59,0.00,,,0.00,Wunderground v.1.15,2013-09-06 07:49:00,
2013-09-06 02:50:00,79.6,64.0,30.05,East,97,0.0,2.0,59,0.00,,,0.00,Wunderground v.1.15,2013-09-06 07:50:00,
2013-09-06 02:52:00,79.6,64.0,30.06,East,98,0.0,3.0,59,0.00,,,0.00,Wunderground v.1.15,2013-09-06 07:52:00,
2013-09-06 02:53:00,79.6,64.0,30.06,East,98,0.0,3.0,59,0.00,,,0.00,Wunderground v.1.15,2013-09-06 07:53:00,
2013-09-06 02:55:00,79.6,64.0,30.05,ESE,103,2.0,3.0,59,0.00,,,0.00,Wunderground v.1.15,2013-09-06 07:55:00,
2013-09-06 02:57:00,79.6,64.0,30.05,SE,142,2.0,4.0,59,0.00,,,0.00,Wunderground v.1.15,2013-09-06 07:57:00,
2013-09-06 02:58:00,79.6,64.0,30.05,SE,142,0.0,1.0,59,0.00,,,0.00,Wunderground v.1.15,2013-09-06 07:58:00,
2013-09-06 02:59:00,79.6,64.5,30.05,SSE,148,0.0,2.0,60,0.00,,,0.00,Wunderground v.1.15,2013-09-06 07:59:00,
2013-09-06 03:00:00,79.6,64.5,30.05,SSE,155,1.0,4.0,60,0.00,,,0.00,Wunderground v.1.15,2013-09-06 08:00:00,
2013-09-06 03:03:00,79.6,64.5,30.05,South,179,3.0,5.0,60,0.00,,,0.00,Wunderground v.1.15,2013-09-06 08:03:00,
2013-09-06 03:04:00,79.6,64.5,30.05,South,180,4.0,5.0,60,0.00,,,0.00,Wunderground v.1.15,2013-09-06 08:04:00,
2013-09-06 03:05:00,79.8,64.7,30.05,South,180,4.0,5.0,60,0.00,,,0.00,Wunderground v.1.15,2013-09-06 08:05:00,
2013-09-06 03:08:00,79.8,64.7,30.05,South,180,2.0,5.0,60,0.00,,,0.00,Wunderground v.1.15,2013-09-06 08:08:00,
2013-09-06 03:09:00,79.8,64.7,30.05,South,182,3.0,4.0,60,0.00,,,0.00,Wunderground v.1.15,2013-09-06 08:09:00,
2013-09-06 03:10:00,79.9,64.8,30.05,South,184,4.0,4.0,60,0.00,,,0.00,Wunderground v.1.15,2013-09-06 08:10:00,
2013-09-06 03:14:00,79.9,64.8,30.05,South,184,3.0,5.0,60,0.00,,,0.00,Wunderground v.1.15,2013-09-06 08:14:00,
2013-09-06 03:15:00,79.9,64.8,30.05,SSW,192,2.0,6.0,60,0.00,,,0.00,Wunderground v.1.15,2013-09-06 08:15:00,
2013-09-06 03:16:00,80.1,65.0,30.05,SSW,192,3.0,6.0,60,0.00,,,0.00,Wunderground v.1.15,2013-09-06 08:16:00,
2013-09-06 03:19:00,80.1,65.0,30.05,SSW,192,3.0,4.0,60,0.00,,,0.00,Wunderground v.1.15,2013-09-06 08:19:00,
2013-09-06 03:20:00,80.1,65.0,30.05,SSW,192,0.0,4.0,60,0.00,,,0.00,Wunderground v.1.15,2013-09-06 08:20:00,
2013-09-06 03:21:00,80.1,65.0,30.05,SSW,192,6.0,6.0,60,0.00,,,0.00,Wunderground v.1.15,2013-09-06 08:21:00,
2013-09-06 03:22:00,80.1,65.0,30.05,SSW,193,3.0,6.0,60,0.00,,,0.00,Wunderground v.1.15,2013-09-06 08:22:00,
2013-09-06 03:25:00,80.3,65.1,30.05,SSW,192,0.0,7.0,60,0.00,,,0.00,Wunderground v.1.15,2013-09-06 08:25:00,
2013-09-06 03:26:00,80.3,65.1,30.05,SSW,192,4.0,7.0,60,0.00,,,0.00,Wunderground v.1.15,2013-09-06 08:26:00,
2013-09-06 03:27:00,80.3,65.1,30.05,South,169,6.0,7.0,60,0.00,,,0.00,Wunderground v.1.15,2013-09-06 08:27:00,
2013-09-06 03:30:00,80.3,65.1,30.05,South,191,7.0,7.0,60,0.00,,,0.00,Wunderground v.1.15,2013-09-06 08:30:00,
2013-09-06 03:31:00,80.3,65.1,30.05,SSW,196,4.0,7.0,60,0.00,,,0.00,Wunderground v.1.15,2013-09-06 08:31:00,
2013-09-06 03:32:00,80.3,65.1,30.05,SSW,195,3.0,7.0,60,0.00,,,0.00,Wunderground v.1.15,2013-09-06 08:32:00,
2013-09-06 03:34:00,80.3,65.1,30.05,South,183,6.0,7.0,60,0.00,,,0.00,Wunderground v.1.15,2013-09-06 08:34:00,
2013-09-06 03:35:00,80.3,65.1,30.05,South,184,2.0,7.0,60,0.00,,,0.00,Wunderground v.1.15,2013-09-06 08:35:00,
2013-09-06 03:36:00,80.3,65.1,30.05,South,184,3.0,7.0,60,0.00,,,0.00,Wunderground v.1.15,2013-09-06 08:36:00,
2013-09-06 03:38:00,80.3,65.1,30.05,South,189,3.0,4.0,60,0.00,,,0.00,Wunderground v.1.15,2013-09-06 08:38:00,
2013-09-06 03:39:00,80.3,65.1,30.05,South,189,2.0,4.0,60,0.00,,,0.00,Wunderground v.1.15,2013-09-06 08:39:00,
2013-09-06 03:41:00,80.3,65.1,30.05,South,188,5.0,7.0,60,0.00,,,0.00,Wunderground v.1.15,2013-09-06 08:41:00,
2013-09-06 03:42:00,80.3,65.1,30.05,South,188,3.0,7.0,60,0.00,,,0.00,Wunderground v.1.15,2013-09-06 08:42:00,
2013-09-06 03:43:00,80.3,65.1,30.05,South,184,3.0,7.0,60,0.00,,,0.00,Wunderground v.1.15,2013-09-06 08:43:00,
2013-09-06 03:44:00,80.3,65.1,30.05,South,189,4.0,7.0,60,0.00,,,0.00,Wunderground v.1.15,2013-09-06 08:44:00,
2013-09-06 03:46:00,80.3,65.1,30.05,South,179,2.0,7.0,60,0.00,,,0.00,Wunderground v.1.15,2013-09-06 08:46:00,
2013-09-06 03:47:00,80.3,65.1,30.05,South,184,4.0,7.0,60,0.00,,,0.00,Wunderground v.1.15,2013-09-06 08:47:00,
2013-09-06 03:48:00,80.3,65.1,30.05,South,184,0.0,3.0,60,0.00,,,0.00,Wunderground v.1.15,2013-09-06 08:48:00,
2013-09-06 03:49:00,80.3,65.1,30.05,South,184,0.0,3.0,60,0.00,,,0.00,Wunderground v.1.15,2013-09-06 08:49:00,
2013-09-06 03:51:00,80.3,65.1,30.05,South,184,2.0,4.0,60,0.00,,,0.00,Wunderground v.1.15,2013-09-06 08:51:00,
2013-09-06 03:52:00,80.3,65.1,30.05,South,184,1.0,4.0,60,0.00,,,0.00,Wunderground v.1.15,2013-09-06 08:52:00,
2013-09-06 03:53:00,80.3,65.1,30.05,South,184,0.0,4.0,60,0.00,,,0.00,Wunderground v.1.15,2013-09-06 08:53:00,
2013-09-06 03:54:00,80.3,65.1,30.05,South,184,2.0,4.0,60,0.00,,,0.00,Wunderground v.1.15,2013-09-06 08:54:00,
2013-09-06 03:55:00,80.3,65.1,30.05,South,184,0.0,4.0,60,0.00,,,0.00,Wunderground v.1.15,2013-09-06 08:55:00,
2013-09-06 03:59:00,80.3,65.1,30.05,South,184,0.0,1.0,60,0.00,,,0.00,Wunderground v.1.15,2013-09-06 08:59:00,
2013-09-06 04:00:00,80.1,65.0,30.05,South,184,0.0,1.0,60,0.00,,,0.00,Wunderground v.1.15,2013-09-06 09:00:00,
2013-09-06 04:02:00,80.1,65.0,30.05,South,184,0.0,1.0,60,0.00,,,0.00,Wunderground v.1.15,2013-09-06 09:02:00,
2013-09-06 04:04:00,80.1,65.0,30.06,South,184,0.0,1.0,60,0.00,,,0.00,Wunderground v.1.15,2013-09-06 09:04:00,
2013-09-06 04:05:00,80.1,65.0,30.05,South,184,0.0,1.0,60,0.00,,,0.00,Wunderground v.1.15,2013-09-06 09:05:00,
2013-09-06 04:06:00,80.1,65.0,30.06,South,184,0.0,1.0,60,0.00,,,0.00,Wunderground v.1.15,2013-09-06 09:06:00,
2013-09-06 04:07:00,80.1,65.0,30.05,South,184,0.0,1.0,60,0.00,,,0.00,Wunderground v.1.15,2013-09-06 09:07:00,
2013-09-06 04:09:00,80.1,65.0,30.05,South,184,0.0,2.0,60,0.00,,,0.00,Wunderground v.1.15,2013-09-06 09:09:00,
2013-09-06 04:10:00,80.1,65.0,30.06,South,184,0.0,2.0,60,0.00,,,0.00,Wunderground v.1.15,2013-09-06 09:10:00,
2013-09-06 04:11:00,79.9,65.2,30.05,South,184,0.0,2.0,61,0.00,,,0.00,Wunderground v.1.15,2013-09-06 09:11:00,
2013-09-06 04:12:00,79.9,65.2,30.05,South,184,0.0,2.0,61,0.00,,,0.00,Wunderground v.1.15,2013-09-06 09:12:00,
2013-09-06 04:13:00,79.9,65.2,30.05,South,184,0.0,2.0,61,0.00,,,0.00,Wunderground v.1.15,2013-09-06 09:13:00,
2013-09-06 04:14:00,79.9,65.2,30.05,South,184,1.0,2.0,61,0.00,,,0.00,Wunderground v.1.15,2013-09-06 09:14:00,
2013-09-06 04:15:00,79.9,65.2,30.05,South,184,0.0,2.0,61,0.00,,,0.00,Wunderground v.1.15,2013-09-06 09:15:00,
2013-09-06 04:17:00,79.9,65.2,30.05,South,184,0.0,2.0,61,0.00,,,0.00,Wunderground v.1.15,2013-09-06 09:17:00,
2013-09-06 04:18:00,79.9,65.2,30.05,South,184,0.0,0.0,61,0.00,,,0.00,Wunderground v.1.15,2013-09-06 09:18:00,
2013-09-06 04:19:00,79.9,65.2,30.05,South,184,0.0,0.0,61,0.00,,,0.00,Wunderground v.1.15,2013-09-06 09:19:00,
2013-09-06 04:20:00,79.9,65.2,30.05,South,184,0.0,0.0,61,0.00,,,0.00,Wunderground v.1.15,2013-09-06 09:20:00,
2013-09-06 04:21:00,79.9,65.2,30.05,South,184,0.0,0.0,61,0.00,,,0.00,Wunderground v.1.15,2013-09-06 09:21:00,
2013-09-06 04:23:00,79.9,65.2,30.05,South,184,0.0,0.0,61,0.00,,,0.00,Wunderground v.1.15,2013-09-06 09:23:00,
2013-09-06 04:24:00,79.9,65.2,30.05,South,184,0.0,0.0,61,0.00,,,0.00,Wunderground v.1.15,2013-09-06 09:24:00,
2013-09-06 04:25:00,79.9,65.2,30.05,South,184,0.0,1.0,61,0.00,,,0.00,Wunderground v.1.15,2013-09-06 09:25:00,
2013-09-06 04:27:00,79.9,65.2,30.05,South,184,3.0,3.0,61,0.00,,,0.00,Wunderground v.1.15,2013-09-06 09:27:00,
2013-09-06 04:29:00,79.8,65.2,30.05,South,184,0.0,0.0,61,0.00,,,0.00,Wunderground v.1.15,2013-09-06 09:29:00,
2013-09-06 04:31:00,79.8,65.2,30.05,South,184,0.0,0.0,61,0.00,,,0.00,Wunderground v.1.15,2013-09-06 09:31:00,
2013-09-06 04:32:00,79.8,65.2,30.05,South,184,0.0,0.0,61,0.00,,,0.00,Wunderground v.1.15,2013-09-06 09:32:00,
2013-09-06 04:34:00,79.8,65.6,30.05,South,184,0.0,0.0,62,0.00,,,0.00,Wunderground v.1.15,2013-09-06 09:34:00,
2013-09-06 04:36:00,79.8,65.6,30.05,South,184,0.0,0.0,62,0.00,,,0.00,Wunderground v.1.15,2013-09-06 09:36:00,
2013-09-06 04:37:00,79.8,65.6,30.05,South,184,0.0,0.0,62,0.00,,,0.00,Wunderground v.1.15,2013-09-06 09:37:00,
2013-09-06 04:40:00,79.8,65.6,30.05,South,184,0.0,0.0,62,0.00,,,0.00,Wunderground v.1.15,2013-09-06 09:40:00,
2013-09-06 04:41:00,79.8,65.6,30.05,South,184,0.0,0.0,62,0.00,,,0.00,Wunderground v.1.15,2013-09-06 09:41:00,
2013-09-06 04:42:00,79.8,65.6,30.05,South,184,0.0,0.0,62,0.00,,,0.00,Wunderground v.1.15,2013-09-06 09:42:00,
2013-09-06 04:45:00,79.6,65.9,30.06,South,180,1.0,1.0,63,0.00,,,0.00,Wunderground v.1.15,2013-09-06 09:45:00,
2013-09-06 04:46:00,79.6,65.9,30.06,ESE,115,1.0,4.0,63,0.00,,,0.00,Wunderground v.1.15,2013-09-06 09:46:00,
2013-09-06 04:47:00,79.4,65.7,30.06,ESE,109,0.0,4.0,63,0.00,,,0.00,Wunderground v.1.15,2013-09-06 09:47:00,
2013-09-06 04:48:00,79.4,65.7,30.06,East,97,0.0,4.0,63,0.00,,,0.00,Wunderground v.1.15,2013-09-06 09:48:00,
2013-09-06 04:51:00,78.8,65.6,30.06,East,92,2.0,5.0,64,0.00,,,0.00,Wunderground v.1.15,2013-09-06 09:51:00,
2013-09-06 04:52:00,78.6,65.4,30.06,East,92,1.0,5.0,64,0.00,,,0.00,Wunderground v.1.15,2013-09-06 09:52:00,
2013-09-06 04:53:00,78.5,65.3,30.06,East,92,1.0,5.0,64,0.00,,,0.00,Wunderground v.1.15,2013-09-06 09:53:00,
2013-09-06 04:54:00,78.3,65.6,30.06,East,92,0.0,5.0,65,0.00,,,0.00,Wunderground v.1.15,2013-09-06 09:54:00,
2013-09-06 04:56:00,78.3,65.6,30.06,East,92,0.0,5.0,65,0.00,,,0.00,Wunderground v.1.15,2013-09-06 09:56:00,
2013-09-06 04:57:00,78.3,65.6,30.06,East,92,0.0,5.0,65,0.00,,,0.00,Wunderground v.1.15,2013-09-06 09:57:00,
2013-09-06 04:59:00,78.1,65.4,30.06,East,92,0.0,1.0,65,0.00,,,0.00,Wunderground v.1.15,2013-09-06 09:59:00,
2013-09-06 05:00:00,78.1,65.4,30.06,East,92,0.0,1.0,65,0.00,,,0.00,Wunderground v.1.15,2013-09-06 10:00:00,
2013-09-06 05:01:00,78.1,65.4,30.06,East,92,0.0,1.0,65,0.00,,,0.00,Wunderground v.1.15,2013-09-06 10:01:00,
2013-09-06 05:02:00,78.1,65.4,30.06,East,92,0.0,1.0,65,0.00,,,0.00,Wunderground v.1.15,2013-09-06 10:02:00,
2013-09-06 05:03:00,78.1,65.4,30.06,East,92,0.0,1.0,65,0.00,,,0.00,Wunderground v.1.15,2013-09-06 10:03:00,
2013-09-06 05:06:00,77.9,65.2,30.06,East,92,1.0,1.0,65,0.00,,,0.00,Wunderground v.1.15,2013-09-06 10:06:00,
2013-09-06 05:07:00,77.9,65.2,30.06,East,92,0.0,1.0,65,0.00,,,0.00,Wunderground v.1.15,2013-09-06 10:07:00,
2013-09-06 05:08:00,77.9,65.2,30.06,East,92,0.0,1.0,65,0.00,,,0.00,Wunderground v.1.15,2013-09-06 10:08:00,
2013-09-06 05:11:00,77.9,65.6,30.06,East,92,0.0,0.0,66,0.00,,,0.00,Wunderground v.1.15,2013-09-06 10:11:00,
2013-09-06 05:12:00,77.7,65.4,30.06,East,92,0.0,0.0,66,0.00,,,0.00,Wunderground v.1.15,2013-09-06 10:12:00,
2013-09-06 05:13:00,77.7,65.4,30.06,East,92,0.0,0.0,66,0.00,,,0.00,Wunderground v.1.15,2013-09-06 10:13:00,
2013-09-06 05:14:00,77.7,65.4,30.06,East,92,0.0,0.0,66,0.00,,,0.00,Wunderground v.1.15,2013-09-06 10:14:00,
2013-09-06 05:17:00,77.7,65.4,30.06,East,92,0.0,0.0,66,0.00,,,0.00,Wunderground v.1.15,2013-09-06 10:17:00,
2013-09-06 05:18:00,77.7,65.4,30.06,East,92,0.0,0.0,66,0.00,,,0.00,Wunderground v.1.15,2013-09-06 10:18:00,
2013-09-06 05:20:00,77.6,65.3,30.06,East,92,0.0,0.0,66,0.00,,,0.00,Wunderground v.1.15,2013-09-06 10:20:00,
2013-09-06 05:22:00,77.6,65.8,30.06,East,92,0.0,0.0,67,0.00,,,0.00,Wunderground v.1.15,2013-09-06 10:22:00,
2013-09-06 05:23:00,77.6,65.8,30.06,East,92,0.0,0.0,67,0.00,,,0.00,Wunderground v.1.15,2013-09-06 10:23:00,
2013-09-06 05:24:00,77.4,65.6,30.06,East,92,0.0,0.0,67,0.00,,,0.00,Wunderground v.1.15,2013-09-06 10:24:00,
2013-09-06 05:27:00,77.2,65.4,30.06,East,92,0.0,0.0,67,0.00,,,0.00,Wunderground v.1.15,2013-09-06 10:27:00,
2013-09-06 05:28:00,77.2,65.4,30.06,East,92,0.0,0.0,67,0.00,,,0.00,Wunderground v.1.15,2013-09-06 10:28:00,
2013-09-06 05:29:00,77.2,65.4,30.06,East,92,0.0,0.0,67,0.00,,,0.00,Wunderground v.1.15,2013-09-06 10:29:00,
2013-09-06 05:33:00,77.0,65.6,30.06,East,92,0.0,0.0,68,0.00,,,0.00,Wunderground v.1.15,2013-09-06 10:33:00,
2013-09-06 05:34:00,77.0,65.6,30.06,East,92,0.0,1.0,68,0.00,,,0.00,Wunderground v.1.15,2013-09-06 10:34:00,
2013-09-06 05:35:00,77.0,65.6,30.06,East,92,0.0,1.0,68,0.00,,,0.00,Wunderground v.1.15,2013-09-06 10:35:00,
2013-09-06 05:38:00,77.0,65.6,30.06,East,92,0.0,0.0,68,0.00,,,0.00,Wunderground v.1.15,2013-09-06 10:38:00,
2013-09-06 05:39:00,77.0,65.6,30.06,East,92,0.0,0.0,68,0.00,,,0.00,Wunderground v.1.15,2013-09-06 10:39:00,
2013-09-06 05:40:00,77.0,65.6,30.06,East,92,0.0,0.0,68,0.00,,,0.00,Wunderground v.1.15,2013-09-06 10:40:00,
2013-09-06 05:41:00,77.0,65.6,30.06,East,92,0.0,0.0,68,0.00,,,0.00,Wunderground v.1.15,2013-09-06 10:41:00,
2013-09-06 05:44:00,76.8,65.4,30.06,East,92,0.0,1.0,68,0.00,,,0.00,Wunderground v.1.15,2013-09-06 10:44:00,
2013-09-06 05:45:00,76.8,65.4,30.06,East,92,0.0,1.0,68,0.00,,,0.00,Wunderground v.1.15,2013-09-06 10:45:00,
2013-09-06 05:46:00,76.8,65.4,30.06,East,92,0.0,1.0,68,0.00,,,0.00,Wunderground v.1.15,2013-09-06 10:46:00,
2013-09-06 05:49:00,76.8,65.4,30.06,East,92,0.0,0.0,68,0.00,,,0.00,Wunderground v.1.15,2013-09-06 10:49:00,
2013-09-06 05:51:00,76.8,65.4,30.06,East,92,0.0,1.0,68,0.00,,,0.00,Wunderground v.1.15,2013-09-06 10:51:00,
2013-09-06 05:52:00,76.8,65.4,30.06,East,92,0.0,1.0,68,0.00,,,0.00,Wunderground v.1.15,2013-09-06 10:52:00,
2013-09-06 05:55:00,76.7,65.3,30.06,East,92,0.0,1.0,68,0.00,,,0.00,Wunderground v.1.15,2013-09-06 10:55:00,
2013-09-06 05:56:00,76.7,65.3,30.06,East,92,0.0,1.0,68,0.00,,,0.00,Wunderground v.1.15,2013-09-06 10:56:00,
2013-09-06 05:58:00,76.7,65.3,30.06,East,92,0.0,0.0,68,0.00,,,0.00,Wunderground v.1.15,2013-09-06 10:58:00,
2013-09-06 05:59:00,76.7,65.3,30.06,East,92,0.0,0.0,68,0.00,,,0.00,Wunderground v.1.15,2013-09-06 10:59:00,
2013-09-06 06:00:00,76.7,65.3,30.06,East,92,0.0,0.0,68,0.00,,,0.00,Wunderground v.1.15,2013-09-06 11:00:00,
2013-09-06 06:01:00,76.7,65.8,30.06,East,92,0.0,0.0,69,0.00,,,0.00,Wunderground v.1.15,2013-09-06 11:01:00,
2013-09-06 06:04:00,76.7,65.8,30.06,East,92,0.0,0.0,69,0.00,,,0.00,Wunderground v.1.15,2013-09-06 11:04:00,
2013-09-06 06:05:00,76.7,65.8,30.06,East,92,0.0,0.0,69,0.00,,,0.00,Wunderground v.1.15,2013-09-06 11:05:00,
2013-09-06 06:06:00,76.7,65.8,30.06,East,92,0.0,0.0,69,0.00,,,0.00,Wunderground v.1.15,2013-09-06 11:06:00,
2013-09-06 06:07:00,76.7,65.8,30.06,East,92,0.0,0.0,69,0.00,,,0.00,Wunderground v.1.15,2013-09-06 11:07:00,
2013-09-06 06:10:00,76.7,66.2,30.06,East,92,0.0,0.0,70,0.00,,,0.00,Wunderground v.1.15,2013-09-06 11:10:00,
2013-09-06 06:11:00,76.7,66.2,30.06,East,92,0.0,0.0,70,0.00,,,0.00,Wunderground v.1.15,2013-09-06 11:11:00,
2013-09-06 06:12:00,76.7,66.2,30.06,East,92,0.0,0.0,70,0.00,,,0.00,Wunderground v.1.15,2013-09-06 11:12:00,
2013-09-06 06:15:00,76.7,66.2,30.06,East,92,0.0,1.0,70,0.00,,,0.00,Wunderground v.1.15,2013-09-06 11:15:00,
2013-09-06 06:17:00,76.7,66.2,30.06,East,92,0.0,1.0,70,0.00,,,0.00,Wunderground v.1.15,2013-09-06 11:17:00,
2013-09-06 06:18:00,76.7,66.2,30.06,East,92,0.0,1.0,70,0.00,,,0.00,Wunderground v.1.15,2013-09-06 11:18:00,
2013-09-06 06:20:00,76.7,66.2,30.06,East,92,0.0,0.0,70,0.00,,,0.00,Wunderground v.1.15,2013-09-06 11:20:00,
2013-09-06 06:21:00,76.7,66.2,30.06,East,92,0.0,0.0,70,0.00,,,0.00,Wunderground v.1.15,2013-09-06 11:21:00,
2013-09-06 06:22:00,76.7,66.2,30.06,East,92,0.0,0.0,70,0.00,,,0.00,Wunderground v.1.15,2013-09-06 11:22:00,
2013-09-06 06:23:00,76.7,66.2,30.06,East,92,0.0,0.0,70,0.00,,,0.00,Wunderground v.1.15,2013-09-06 11:23:00,
2013-09-06 06:26:00,76.7,66.2,30.06,East,92,0.0,0.0,70,0.00,,,0.00,Wunderground v.1.15,2013-09-06 11:26:00,
2013-09-06 06:27:00,76.7,66.2,30.06,East,92,0.0,0.0,70,0.00,,,0.00,Wunderground v.1.15,2013-09-06 11:27:00,
2013-09-06 06:28:00,76.5,66.0,30.06,East,92,0.0,0.0,70,0.00,,,0.00,Wunderground v.1.15,2013-09-06 11:28:00,
2013-09-06 06:29:00,76.5,66.0,30.06,East,92,0.0,0.0,70,0.00,,,0.00,Wunderground v.1.15,2013-09-06 11:29:00,
2013-09-06 06:31:00,76.5,66.0,30.06,East,92,0.0,1.0,70,0.00,,,0.00,Wunderground v.1.15,2013-09-06 11:31:00,
2013-09-06 06:33:00,76.5,66.0,30.07,East,92,0.0,1.0,70,0.00,,,0.00,Wunderground v.1.15,2013-09-06 11:33:00,
2013-09-06 06:34:00,76.5,66.0,30.07,East,92,0.0,1.0,70,0.00,,,0.00,Wunderground v.1.15,2013-09-06 11:34:00,
2013-09-06 06:35:00,76.5,66.0,30.07,East,92,0.0,1.0,70,0.00,,,0.00,Wunderground v.1.15,2013-09-06 11:35:00,
2013-09-06 06:38:00,76.5,66.0,30.07,East,92,0.0,0.0,70,0.00,,,0.00,Wunderground v.1.15,2013-09-06 11:38:00,
2013-09-06 06:39:00,76.5,66.0,30.07,East,92,0.0,0.0,70,0.00,,,0.00,Wunderground v.1.15,2013-09-06 11:39:00,
2013-09-06 06:40:00,76.5,66.0,30.07,East,92,0.0,0.0,70,0.00,,,0.00,Wunderground v.1.15,2013-09-06 11:40:00,
2013-09-06 06:41:00,76.5,66.0,30.07,East,92,0.0,0.0,70,0.00,,,0.00,Wunderground v.1.15,2013-09-06 11:41:00,
2013-09-06 06:42:00,76.5,66.0,30.07,East,92,0.0,0.0,70,0.00,,,0.00,Wunderground v.1.15,2013-09-06 11:42:00,
2013-09-06 06:43:00,76.5,66.0,30.07,East,92,0.0,0.0,70,0.00,,,0.00,Wunderground v.1.15,2013-09-06 11:43:00,
2013-09-06 06:44:00,76.5,66.0,30.07,East,92,0.0,0.0,70,0.00,,,0.00,Wunderground v.1.15,2013-09-06 11:44:00,
2013-09-06 06:46:00,76.5,66.0,30.07,East,92,0.0,0.0,70,0.00,,,0.00,Wunderground v.1.15,2013-09-06 11:46:00,
2013-09-06 06:48:00,76.5,66.0,30.07,East,92,0.0,0.0,70,0.00,,,0.00,Wunderground v.1.15,2013-09-06 11:48:00,
2013-09-06 06:49:00,76.5,66.0,30.07,East,92,0.0,0.0,70,0.00,,,0.00,Wunderground v.1.15,2013-09-06 11:49:00,
2013-09-06 06:51:00,76.5,66.0,30.07,East,92,0.0,0.0,70,0.00,,,0.00,Wunderground v.1.15,2013-09-06 11:51:00,
2013-09-06 06:52:00,76.5,66.0,30.07,East,92,0.0,0.0,70,0.00,,,0.00,Wunderground v.1.15,2013-09-06 11:52:00,
2013-09-06 06:53:00,76.3,66.2,30.07,East,92,0.0,0.0,71,0.00,,,0.00,Wunderground v.1.15,2013-09-06 11:53:00,
2013-09-06 06:54:00,76.3,66.2,30.07,East,92,0.0,0.0,71,0.00,,,0.00,Wunderground v.1.15,2013-09-06 11:54:00,
2013-09-06 06:56:00,76.3,66.2,30.07,East,92,0.0,0.0,71,0.00,,,0.00,Wunderground v.1.15,2013-09-06 11:56:00,
2013-09-06 06:57:00,76.3,66.2,30.07,East,92,0.0,0.0,71,0.00,,,0.00,Wunderground v.1.15,2013-09-06 11:57:00,
2013-09-06 06:59:00,76.3,66.2,30.07,East,92,0.0,0.0,71,0.00,,,0.00,Wunderground v.1.15,2013-09-06 11:59:00,
2013-09-06 07:01:00,76.1,66.0,30.07,East,92,0.0,0.0,71,0.00,,,0.00,Wunderground v.1.15,2013-09-06 12:01:00,
2013-09-06 07:02:00,76.1,66.0,30.08,East,92,0.0,0.0,71,0.00,,,0.00,Wunderground v.1.15,2013-09-06 12:02:00,
2013-09-06 07:05:00,76.1,66.0,30.08,East,92,0.0,0.0,71,0.00,,,0.00,Wunderground v.1.15,2013-09-06 12:05:00,
2013-09-06 07:06:00,76.1,66.0,30.08,East,92,0.0,0.0,71,0.00,,,0.00,Wunderground v.1.15,2013-09-06 12:06:00,
2013-09-06 07:07:00,76.1,66.0,30.08,East,92,0.0,0.0,71,0.00,,,0.00,Wunderground v.1.15,2013-09-06 12:07:00,
2013-09-06 07:08:00,76.1,66.0,30.08,East,92,0.0,0.0,71,0.00,,,0.00,Wunderground v.1.15,2013-09-06 12:08:00,
2013-09-06 07:10:00,76.0,65.9,30.08,East,92,0.0,0.0,71,0.00,,,0.00,Wunderground v.1.15,2013-09-06 12:10:00,
2013-09-06 07:12:00,76.0,65.9,30.08,East,92,0.0,0.0,71,0.00,,,0.00,Wunderground v.1.15,2013-09-06 12:12:00,
2013-09-06 07:13:00,76.0,65.9,30.08,East,92,0.0,0.0,71,0.00,,,0.00,Wunderground v.1.15,2013-09-06 12:13:00,
2013-09-06 07:14:00,76.0,66.3,30.08,East,92,0.0,0.0,72,0.00,,,0.00,Wunderground v.1.15,2013-09-06 12:14:00,
2013-09-06 07:15:00,76.0,66.3,30.08,East,92,0.0,0.0,72,0.00,,,0.00,Wunderground v.1.15,2013-09-06 12:15:00,
2013-09-06 07:16:00,76.0,66.3,30.08,East,92,0.0,0.0,72,0.00,,,0.00,Wunderground v.1.15,2013-09-06 12:16:00,
2013-09-06 07:17:00,76.0,66.3,30.08,East,92,0.0,0.0,72,0.00,,,0.00,Wunderground v.1.15,2013-09-06 12:17:00,
2013-09-06 07:19:00,76.0,66.3,30.08,East,92,0.0,1.0,72,0.00,,,0.00,Wunderground v.1.15,2013-09-06 12:19:00,
2013-09-06 07:21:00,76.0,66.3,30.08,East,92,0.0,1.0,72,0.00,,,0.00,Wunderground v.1.15,2013-09-06 12:21:00,
2013-09-06 07:22:00,76.0,66.3,30.08,East,92,0.0,1.0,72,0.00,,,0.00,Wunderground v.1.15,2013-09-06 12:22:00,
2013-09-06 07:24:00,76.0,66.3,30.08,East,92,0.0,1.0,72,0.00,,,0.00,Wunderground v.1.15,2013-09-06 12:24:00,
2013-09-06 07:25:00,76.0,66.3,30.08,East,92,0.0,1.0,72,0.00,,,0.00,Wunderground v.1.15,2013-09-06 12:25:00,
2013-09-06 07:27:00,76.0,66.3,30.08,East,92,0.0,1.0,72,0.00,,,0.00,Wunderground v.1.15,2013-09-06 12:27:00,
2013-09-06 07:28:00,76.0,66.3,30.08,East,92,0.0,1.0,72,0.00,,,0.00,Wunderground v.1.15,2013-09-06 12:28:00,
2013-09-06 07:29:00,76.0,66.3,30.08,East,92,0.0,0.0,72,0.00,,,0.00,Wunderground v.1.15,2013-09-06 12:29:00,
2013-09-06 07:32:00,76.0,66.3,30.08,East,92,0.0,0.0,72,0.00,,,0.00,Wunderground v.1.15,2013-09-06 12:32:00,
2013-09-06 07:33:00,76.0,66.3,30.08,East,92,0.0,0.0,72,0.00,,,0.00,Wunderground v.1.15,2013-09-06 12:33:00,
2013-09-06 07:34:00,76.0,66.7,30.08,East,92,0.0,0.0,73,0.00,,,0.00,Wunderground v.1.15,2013-09-06 12:34:00,
2013-09-06 07:37:00,76.0,66.7,30.09,East,92,0.0,0.0,73,0.00,,,0.00,Wunderground v.1.15,2013-09-06 12:37:00,
2013-09-06 07:38:00,76.0,66.3,30.08,East,92,0.0,0.0,72,0.00,,,0.00,Wunderground v.1.15,2013-09-06 12:38:00,
2013-09-06 07:39:00,76.0,66.3,30.09,East,92,0.0,0.0,72,0.00,,,0.00,Wunderground v.1.15,2013-09-06 12:39:00,
2013-09-06 07:40:00,76.0,66.3,30.09,East,92,0.0,0.0,72,0.00,,,0.00,Wunderground v.1.15,2013-09-06 12:40:00,
2013-09-06 07:42:00,76.0,66.3,30.09,East,92,0.0,0.0,72,0.00,,,0.00,Wunderground v.1.15,2013-09-06 12:42:00,
2013-09-06 07:44:00,76.0,66.3,30.09,East,92,0.0,0.0,72,0.00,,,0.00,Wunderground v.1.15,2013-09-06 12:44:00,
2013-09-06 07:45:00,76.0,66.3,30.09,East,92,0.0,0.0,72,0.00,,,0.00,Wunderground v.1.15,2013-09-06 12:45:00,
2013-09-06 07:46:00,76.0,66.3,30.09,East,92,0.0,0.0,72,0.00,,,0.00,Wunderground v.1.15,2013-09-06 12:46:00,
2013-09-06 07:48:00,76.0,66.7,30.09,East,92,0.0,0.0,73,0.00,,,0.00,Wunderground v.1.15,2013-09-06 12:48:00,
2013-09-06 07:50:00,76.1,66.8,30.09,East,92,0.0,0.0,73,0.00,,,0.00,Wunderground v.1.15,2013-09-06 12:50:00,
2013-09-06 07:51:00,76.1,66.8,30.09,East,92,0.0,0.0,73,0.00,,,0.00,Wunderground v.1.15,2013-09-06 12:51:00,
2013-09-06 07:53:00,76.1,66.8,30.09,East,92,0.0,0.0,73,0.00,,,0.00,Wunderground v.1.15,2013-09-06 12:53:00,
2013-09-06 07:54:00,76.1,66.4,30.09,East,92,0.0,0.0,72,0.00,,,0.00,Wunderground v.1.15,2013-09-06 12:54:00,
2013-09-06 07:55:00,76.1,66.4,30.09,East,92,0.0,0.0,72,0.00,,,0.00,Wunderground v.1.15,2013-09-06 12:55:00,
2013-09-06 07:56:00,76.1,66.4,30.09,East,92,0.0,0.0,72,0.00,,,0.00,Wunderground v.1.15,2013-09-06 12:56:00,
2013-09-06 07:58:00,76.3,66.6,30.09,East,92,0.0,0.0,72,0.00,,,0.00,Wunderground v.1.15,2013-09-06 12:58:00,
2013-09-06 08:00:00,76.3,66.6,30.09,East,92,0.0,0.0,72,0.00,,,0.00,Wunderground v.1.15,2013-09-06 13:00:00,
2013-09-06 08:01:00,76.3,66.6,30.09,East,92,0.0,0.0,72,0.00,,,0.00,Wunderground v.1.15,2013-09-06 13:01:00,
2013-09-06 08:03:00,76.5,66.8,30.09,East,92,0.0,1.0,72,0.00,,,0.00,Wunderground v.1.15,2013-09-06 13:03:00,
2013-09-06 08:04:00,76.5,66.8,30.09,East,92,0.0,1.0,72,0.00,,,0.00,Wunderground v.1.15,2013-09-06 13:04:00,
2013-09-06 08:05:00,76.5,66.8,30.09,East,92,0.0,1.0,72,0.00,,,0.00,Wunderground v.1.15,2013-09-06 13:05:00,
2013-09-06 08:07:00,76.5,66.8,30.09,East,92,0.0,1.0,72,0.00,,,0.00,Wunderground v.1.15,2013-09-06 13:07:00,
2013-09-06 08:08:00,76.5,66.8,30.09,East,92,0.0,0.0,72,0.00,,,0.00,Wunderground v.1.15,2013-09-06 13:08:00,
2013-09-06 08:09:00,76.5,66.8,30.09,East,92,0.0,0.0,72,0.00,,,0.00,Wunderground v.1.15,2013-09-06 13:09:00,
2013-09-06 08:10:00,76.5,66.8,30.10,East,92,0.0,0.0,72,0.00,,,0.00,Wunderground v.1.15,2013-09-06 13:10:00,
2013-09-06 08:11:00,76.7,67.0,30.10,East,92,0.0,0.0,72,0.00,,,0.00,Wunderground v.1.15,2013-09-06 13:11:00,
2013-09-06 08:12:00,76.7,67.0,30.10,East,92,0.0,0.0,72,0.00,,,0.00,Wunderground v.1.15,2013-09-06 13:12:00,
2013-09-06 08:13:00,76.7,67.0,30.10,East,92,0.0,0.0,72,0.00,,,0.00,Wunderground v.1.15,2013-09-06 13:13:00,
2013-09-06 08:15:00,76.7,67.0,30.10,East,92,0.0,0.0,72,0.00,,,0.00,Wunderground v.1.15,2013-09-06 13:15:00,
2013-09-06 08:18:00,76.8,66.7,30.10,East,92,0.0,0.0,71,0.00,,,0.00,Wunderground v.1.15,2013-09-06 13:18:00,
2013-09-06 08:19:00,77.0,66.9,30.10,East,92,0.0,0.0,71,0.00,,,0.00,Wunderground v.1.15,2013-09-06 13:19:00,
2013-09-06 08:20:00,77.0,66.9,30.10,East,92,0.0,0.0,71,0.00,,,0.00,Wunderground v.1.15,2013-09-06 13:20:00,
2013-09-06 08:21:00,77.2,67.1,30.10,East,92,0.0,1.0,71,0.00,,,0.00,Wunderground v.1.15,2013-09-06 13:21:00,
2013-09-06 08:23:00,77.4,67.3,30.10,East,92,0.0,1.0,71,0.00,,,0.00,Wunderground v.1.15,2013-09-06 13:23:00,
2013-09-06 08:25:00,77.6,67.4,30.10,East,92,0.0,1.0,71,0.00,,,0.00,Wunderground v.1.15,2013-09-06 13:25:00,
2013-09-06 08:26:00,77.7,67.1,30.10,East,92,0.0,1.0,70,0.00,,,0.00,Wunderground v.1.15,2013-09-06 13:26:00,
2013-09-06 08:27:00,77.7,67.1,30.10,East,92,0.0,1.0,70,0.00,,,0.00,Wunderground v.1.15,2013-09-06 13:27:00,
2013-09-06 08:28:00,77.9,67.3,30.10,East,92,0.0,1.0,70,0.00,,,0.00,Wunderground v.1.15,2013-09-06 13:28:00,
2013-09-06 08:31:00,78.1,67.1,30.10,East,92,0.0,1.0,69,0.00,,,0.00,Wunderground v.1.15,2013-09-06 13:31:00,
2013-09-06 08:32:00,78.3,67.3,30.10,East,92,0.0,1.0,69,0.00,,,0.00,Wunderground v.1.15,2013-09-06 13:32:00,
2013-09-06 08:33:00,78.5,67.1,30.10,East,92,0.0,1.0,68,0.00,,,0.00,Wunderground v.1.15,2013-09-06 13:33:00,
2013-09-06 08:36:00,78.6,66.7,30.10,East,92,0.0,1.0,67,0.00,,,0.00,Wunderground v.1.15,2013-09-06 13:36:00,
2013-09-06 08:37:00,78.8,67.3,30.11,East,92,1.0,3.0,68,0.00,,,0.00,Wunderground v.1.15,2013-09-06 13:37:00,
2013-09-06 08:38:00,79.0,67.1,30.10,East,92,0.0,0.0,67,0.00,,,0.00,Wunderground v.1.15,2013-09-06 13:38:00,
2013-09-06 08:39:00,79.0,67.1,30.10,East,92,0.0,1.0,67,0.00,,,0.00,Wunderground v.1.15,2013-09-06 13:39:00,
2013-09-06 08:40:00,79.0,67.1,30.11,East,92,1.0,3.0,67,0.00,,,0.00,Wunderground v.1.15,2013-09-06 13:40:00,
2013-09-06 08:41:00,79.0,67.1,30.10,East,92,0.0,3.0,67,0.00,,,0.00,Wunderground v.1.15,2013-09-06 13:41:00,
2013-09-06 08:42:00,79.2,67.3,30.11,East,92,0.0,3.0,67,0.00,,,0.00,Wunderground v.1.15,2013-09-06 13:42:00,
2013-09-06 08:44:00,79.4,67.5,30.11,East,92,0.0,3.0,67,0.00,,,0.00,Wunderground v.1.15,2013-09-06 13:44:00,
2013-09-06 08:46:00,79.6,67.2,30.11,East,92,1.0,4.0,66,0.00,,,0.00,Wunderground v.1.15,2013-09-06 13:46:00,
2013-09-06 08:47:00,79.6,67.2,30.11,East,92,0.0,4.0,66,0.00,,,0.00,Wunderground v.1.15,2013-09-06 13:47:00,
2013-09-06 08:49:00,79.8,67.4,30.11,East,92,0.0,2.0,66,0.00,,,0.00,Wunderground v.1.15,2013-09-06 13:49:00,
2013-09-06 08:51:00,79.9,67.5,30.11,East,92,0.0,2.0,66,0.00,,,0.00,Wunderground v.1.15,2013-09-06 13:51:00,
2013-09-06 08:52:00,80.1,67.7,30.11,East,91,3.0,3.0,66,0.00,,,0.00,Wunderground v.1.15,2013-09-06 13:52:00,
2013-09-06 08:53:00,80.1,67.7,30.11,East,91,2.0,3.0,66,0.00,,,0.00,Wunderground v.1.15,2013-09-06 13:53:00,
2013-09-06 08:54:00,80.3,67.9,30.11,East,91,0.0,3.0,66,0.00,,,0.00,Wunderground v.1.15,2013-09-06 13:54:00,
2013-09-06 08:55:00,80.3,67.9,30.11,East,91,2.0,3.0,66,0.00,,,0.00,Wunderground v.1.15,2013-09-06 13:55:00,
2013-09-06 08:56:00,80.3,67.5,30.11,East,92,0.0,3.0,65,0.00,,,0.00,Wunderground v.1.15,2013-09-06 13:56:00,
2013-09-06 08:58:00,80.5,67.6,30.11,East,92,0.0,3.0,65,0.00,,,0.00,Wunderground v.1.15,2013-09-06 13:58:00,
2013-09-06 08:59:00,80.5,67.6,30.10,East,92,0.0,0.0,65,0.00,,,0.00,Wunderground v.1.15,2013-09-06 13:59:00,
2013-09-06 09:00:00,80.7,67.8,30.10,East,92,0.0,0.0,65,0.00,,,0.00,Wunderground v.1.15,2013-09-06 14:00:00,
2013-09-06 09:01:00,80.7,67.8,30.10,East,92,0.0,0.0,65,0.00,,,0.00,Wunderground v.1.15,2013-09-06 14:01:00,
2013-09-06 09:02:00,80.7,67.8,30.10,East,92,0.0,0.0,65,0.00,,,0.00,Wunderground v.1.15,2013-09-06 14:02:00,
2013-09-06 09:03:00,80.7,67.8,30.10,East,92,0.0,0.0,65,0.00,,,0.00,Wunderground v.1.15,2013-09-06 14:03:00,
2013-09-06 09:04:00,80.9,68.0,30.10,East,94,3.0,3.0,65,0.00,,,0.00,Wunderground v.1.15,2013-09-06 14:04:00,
2013-09-06 09:05:00,80.9,67.6,30.10,East,94,0.0,3.0,64,0.00,,,0.00,Wunderground v.1.15,2013-09-06 14:05:00,
2013-09-06 09:06:00,80.9,67.6,30.10,East,94,0.0,3.0,64,0.00,,,0.00,Wunderground v.1.15,2013-09-06 14:06:00,
2013-09-06 09:08:00,81.1,67.8,30.10,East,94,0.0,0.0,64,0.00,,,0.00,Wunderground v.1.15,2013-09-06 14:08:00,
2013-09-06 09:09:00,81.1,67.8,30.10,East,94,1.0,1.0,64,0.00,,,0.00,Wunderground v.1.15,2013-09-06 14:09:00,
2013-09-06 09:10:00,81.2,67.9,30.10,East,95,3.0,3.0,64,0.00,,,0.00,Wunderground v.1.15,2013-09-06 14:10:00,
2013-09-06 09:11:00,81.2,67.9,30.10,East,95,0.0,3.0,64,0.00,,,0.00,Wunderground v.1.15,2013-09-06 14:11:00,
2013-09-06 09:12:00,81.4,68.1,30.11,East,95,0.0,3.0,64,0.00,,,0.00,Wunderground v.1.15,2013-09-06 14:12:00,
2013-09-06 09:14:00,81.6,67.8,30.10,East,95,2.0,3.0,63,0.00,,,0.00,Wunderground v.1.15,2013-09-06 14:14:00,
2013-09-06 09:15:00,81.6,67.3,30.11,East,96,0.0,4.0,62,0.00,,,0.00,Wunderground v.1.15,2013-09-06 14:15:00,
2013-09-06 09:16:00,81.6,67.3,30.11,East,96,0.0,4.0,62,0.00,,,0.00,Wunderground v.1.15,2013-09-06 14:16:00,
2013-09-06 09:17:00,81.8,67.5,30.11,East,96,0.0,4.0,62,0.00,,,0.00,Wunderground v.1.15,2013-09-06 14:17:00,
2013-09-06 09:18:00,81.8,67.5,30.11,East,96,0.0,4.0,62,0.00,,,0.00,Wunderground v.1.15,2013-09-06 14:18:00,
2013-09-06 09:20:00,82.0,67.7,30.10,East,96,0.0,1.0,62,0.00,,,0.00,Wunderground v.1.15,2013-09-06 14:20:00,
2013-09-06 09:21:00,82.0,67.7,30.10,East,96,1.0,1.0,62,0.00,,,0.00,Wunderground v.1.15,2013-09-06 14:21:00,
2013-09-06 09:22:00,82.2,67.4,30.10,East,96,0.0,1.0,61,0.00,,,0.00,Wunderground v.1.15,2013-09-06 14:22:00,
2013-09-06 09:23:00,82.2,67.9,30.10,East,96,0.0,1.0,62,0.00,,,0.00,Wunderground v.1.15,2013-09-06 14:23:00,
2013-09-06 09:24:00,82.4,67.6,30.11,East,96,0.0,1.0,61,0.00,,,0.00,Wunderground v.1.15,2013-09-06 14:24:00,
2013-09-06 09:25:00,82.6,68.3,30.10,East,96,1.0,1.0,62,0.00,,,0.00,Wunderground v.1.15,2013-09-06 14:25:00,
2013-09-06 09:27:00,82.8,67.5,30.11,East,96,1.0,3.0,60,0.00,,,0.00,Wunderground v.1.15,2013-09-06 14:27:00,
2013-09-06 09:28:00,83.0,67.7,30.10,East,96,1.0,1.0,60,0.00,,,0.00,Wunderground v.1.15,2013-09-06 14:28:00,
2013-09-06 09:29:00,83.0,67.7,30.10,East,96,0.0,1.0,60,0.00,,,0.00,Wunderground v.1.15,2013-09-06 14:29:00,
2013-09-06 09:30:00,83.2,67.9,30.11,ESE,113,4.0,4.0,60,0.00,,,0.00,Wunderground v.1.15,2013-09-06 14:30:00,
2013-09-06 09:32:00,83.4,68.1,30.10,ESE,114,0.0,4.0,60,0.00,,,0.00,Wunderground v.1.15,2013-09-06 14:32:00,
2013-09-06 09:33:00,83.4,68.1,30.11,ESE,115,1.0,4.0,60,0.00,,,0.00,Wunderground v.1.15,2013-09-06 14:33:00,
2013-09-06 09:34:00,83.6,68.2,30.11,ESE,114,0.0,4.0,60,0.00,,,0.00,Wunderground v.1.15,2013-09-06 14:34:00,
2013-09-06 09:35:00,83.6,67.8,30.11,ESE,114,0.0,4.0,59,0.00,,,0.00,Wunderground v.1.15,2013-09-06 14:35:00,
2013-09-06 09:39:00,84.0,67.6,30.10,SE,135,0.0,1.0,58,0.00,,,0.00,Wunderground v.1.15,2013-09-06 14:39:00,
2013-09-06 09:40:00,84.0,67.6,30.10,SE,135,0.0,1.0,58,0.00,,,0.00,Wunderground v.1.15,2013-09-06 14:40:00,
2013-09-06 09:42:00,84.0,68.1,30.11,SE,135,0.0,2.0,59,0.00,,,0.00,Wunderground v.1.15,2013-09-06 14:42:00,
2013-09-06 09:43:00,84.0,68.1,30.11,SE,135,0.0,2.0,59,0.00,,,0.00,Wunderground v.1.15,2013-09-06 14:43:00,
2013-09-06 09:44:00,84.1,67.7,30.11,SE,139,3.0,3.0,58,0.00,,,0.00,Wunderground v.1.15,2013-09-06 14:44:00,
2013-09-06 09:45:00,84.1,67.7,30.11,SE,139,3.0,3.0,58,0.00,,,0.00,Wunderground v.1.15,2013-09-06 14:45:00,
2013-09-06 09:47:00,84.1,67.7,30.11,SE,139,0.0,4.0,58,0.00,,,0.00,Wunderground v.1.15,2013-09-06 14:47:00,
2013-09-06 09:48:00,84.1,67.7,30.11,SE,139,0.0,1.0,58,0.00,,,0.00,Wunderground v.1.15,2013-09-06 14:48:00,
2013-09-06 09:49:00,84.3,67.9,30.11,SSE,149,4.0,5.0,58,0.00,,,0.00,Wunderground v.1.15,2013-09-06 14:49:00,
2013-09-06 09:50:00,84.3,67.9,30.11,SSE,150,2.0,5.0,58,0.00,,,0.00,Wunderground v.1.15,2013-09-06 14:50:00,
2013-09-06 09:52:00,84.5,67.6,30.11,South,180,3.0,5.0,57,0.00,,,0.00,Wunderground v.1.15,2013-09-06 14:52:00,
2013-09-06 09:53:00,84.5,67.6,30.11,South,180,1.0,5.0,57,0.00,,,0.00,Wunderground v.1.15,2013-09-06 14:53:00,
2013-09-06 09:55:00,84.7,67.8,30.11,South,180,0.0,5.0,57,0.00,,,0.00,Wunderground v.1.15,2013-09-06 14:55:00,
2013-09-06 09:56:00,84.7,67.8,30.11,South,180,0.0,5.0,57,0.00,,,0.00,Wunderground v.1.15,2013-09-06 14:56:00,
2013-09-06 09:57:00,84.9,68.5,30.11,South,184,0.0,5.0,58,0.00,,,0.00,Wunderground v.1.15,2013-09-06 14:57:00,
2013-09-06 10:00:00,85.3,67.8,30.11,SSW,207,3.0,4.0,56,0.00,,,0.00,Wunderground v.1.15,2013-09-06 15:00:00,
2013-09-06 10:01:00,85.3,67.8,30.11,SSW,207,0.0,4.0,56,0.00,,,0.00,Wunderground v.1.15,2013-09-06 15:01:00,
2013-09-06 10:02:00,85.5,68.0,30.11,SSW,207,0.0,4.0,56,0.00,,,0.00,Wunderground v.1.15,2013-09-06 15:02:00,
2013-09-06 10:04:00,85.9,67.9,30.11,SSW,196,1.0,6.0,55,0.00,,,0.00,Wunderground v.1.15,2013-09-06 15:04:00,
2013-09-06 10:06:00,86.1,68.0,30.11,SSW,196,0.0,6.0,55,0.00,,,0.00,Wunderground v.1.15,2013-09-06 15:06:00,
2013-09-06 10:07:00,86.3,68.2,30.11,SSW,196,1.0,6.0,55,0.00,,,0.00,Wunderground v.1.15,2013-09-06 15:07:00,
2013-09-06 10:10:00,86.3,67.7,30.11,SSW,196,0.0,1.0,54,0.00,,,0.00,Wunderground v.1.15,2013-09-06 15:10:00,
2013-09-06 10:12:00,86.5,67.3,30.11,SW,215,2.0,5.0,53,0.00,,,0.00,Wunderground v.1.15,2013-09-06 15:12:00,
2013-09-06 10:15:00,87.0,68.3,30.11,SW,215,0.0,5.0,54,0.00,,,0.00,Wunderground v.1.15,2013-09-06 15:15:00,
2013-09-06 10:16:00,87.0,67.2,30.11,SW,215,0.0,5.0,52,0.00,,,0.00,Wunderground v.1.15,2013-09-06 15:16:00,
2013-09-06 10:17:00,87.2,67.4,30.11,SW,215,0.0,5.0,52,0.00,,,0.00,Wunderground v.1.15,2013-09-06 15:17:00,
2013-09-06 10:18:00,87.2,67.4,30.11,SW,215,0.0,5.0,52,0.00,,,0.00,Wunderground v.1.15,2013-09-06 15:18:00,
2013-09-06 10:20:00,87.4,68.2,30.11,SSW,206,0.0,1.0,53,0.00,,,0.00,Wunderground v.1.15,2013-09-06 15:20:00,
2013-09-06 10:21:00,87.4,68.2,30.11,South,183,4.0,4.0,53,0.00,,,0.00,Wunderground v.1.15,2013-09-06 15:21:00,
2013-09-06 10:22:00,87.4,67.6,30.11,South,169,0.0,4.0,52,0.00,,,0.00,Wunderground v.1.15,2013-09-06 15:22:00,
2013-09-06 10:23:00,87.4,67.6,30.11,South,169,0.0,4.0,52,0.00,,,0.00,Wunderground v.1.15,2013-09-06 15:23:00,
2013-09-06 10:24:00,87.6,67.8,30.11,South,169,0.0,4.0,52,0.00,,,0.00,Wunderground v.1.15,2013-09-06 15:24:00,
2013-09-06 10:26:00,87.8,68.0,30.11,SW,222,0.0,6.0,52,0.00,,,0.00,Wunderground v.1.15,2013-09-06 15:26:00,
2013-09-06 10:27:00,88.0,67.6,30.11,SW,222,3.0,6.0,51,0.00,,,0.00,Wunderground v.1.15,2013-09-06 15:27:00,
2013-09-06 10:28:00,88.0,67.6,30.11,SW,222,0.0,1.0,51,0.00,,,0.00,Wunderground v.1.15,2013-09-06 15:28:00,
2013-09-06 10:29:00,88.0,67.6,30.11,SW,222,0.0,1.0,51,0.00,,,0.00,Wunderground v.1.15,2013-09-06 15:29:00,
2013-09-06 10:31:00,88.4,67.4,30.11,SW,222,0.0,1.0,50,0.00,,,0.00,Wunderground v.1.15,2013-09-06 15:31:00,
2013-09-06 10:32:00,88.6,67.6,30.11,SW,222,0.0,1.0,50,0.00,,,0.00,Wunderground v.1.15,2013-09-06 15:32:00,
2013-09-06 10:33:00,88.6,67.6,30.11,SSW,209,1.0,3.0,50,0.00,,,0.00,Wunderground v.1.15,2013-09-06 15:33:00,
2013-09-06 10:34:00,88.6,67.6,30.11,SSW,209,0.0,3.0,50,0.00,,,0.00,Wunderground v.1.15,2013-09-06 15:34:00,
2013-09-06 10:36:00,88.8,67.8,30.11,SSW,192,1.0,4.0,50,0.00,,,0.00,Wunderground v.1.15,2013-09-06 15:36:00,
2013-09-06 10:37:00,88.8,67.8,30.11,SSW,192,0.0,4.0,50,0.00,,,0.00,Wunderground v.1.15,2013-09-06 15:37:00,
2013-09-06 10:38:00,88.8,68.3,30.11,SSW,192,0.0,4.0,51,0.00,,,0.00,Wunderground v.1.15,2013-09-06 15:38:00,
2013-09-06 10:39:00,88.8,67.8,30.11,SSW,192,0.0,0.0,50,0.00,,,0.00,Wunderground v.1.15,2013-09-06 15:39:00,
2013-09-06 10:40:00,88.8,67.2,30.11,SSW,192,1.0,1.0,49,0.00,,,0.00,Wunderground v.1.15,2013-09-06 15:40:00,
2013-09-06 10:42:00,88.8,67.2,30.11,South,185,0.0,1.0,49,0.00,,,0.00,Wunderground v.1.15,2013-09-06 15:42:00,
2013-09-06 10:43:00,89.0,67.9,30.11,South,191,1.0,2.0,50,0.00,,,0.00,Wunderground v.1.15,2013-09-06 15:43:00,
2013-09-06 10:44:00,89.0,67.9,30.11,SSW,196,1.0,2.0,50,0.00,,,0.00,Wunderground v.1.15,2013-09-06 15:44:00,
2013-09-06 10:45:00,89.0,67.9,30.11,SSW,202,0.0,2.0,50,0.00,,,0.00,Wunderground v.1.15,2013-09-06 15:45:00,
2013-09-06 10:46:00,89.3,68.2,30.11,SSW,208,2.0,3.0,50,0.00,,,0.00,Wunderground v.1.15,2013-09-06 15:46:00,
2013-09-06 10:48:00,89.5,67.2,30.11,SSW,210,0.0,1.0,48,0.00,,,0.00,Wunderground v.1.15,2013-09-06 15:48:00,
2013-09-06 10:49:00,89.7,67.4,30.11,SSW,210,0.0,1.0,48,0.00,,,0.00,Wunderground v.1.15,2013-09-06 15:49:00,
2013-09-06 10:50:00,89.9,68.2,30.11,SSW,195,2.0,5.0,49,0.00,,,0.00,Wunderground v.1.15,2013-09-06 15:50:00,
2013-09-06 10:53:00,89.9,67.6,30.11,SSE,153,0.0,5.0,48,0.00,,,0.00,Wunderground v.1.15,2013-09-06 15:53:00,
2013-09-06 10:54:00,89.9,67.0,30.11,SSE,153,0.0,5.0,47,0.00,,,0.00,Wunderground v.1.15,2013-09-06 15:54:00,
2013-09-06 10:55:00,89.9,67.6,30.11,SSE,153,1.0,5.0,48,0.00,,,0.00,Wunderground v.1.15,2013-09-06 15:55:00,
2013-09-06 10:57:00,90.1,67.2,30.11,SSE,163,0.0,5.0,47,0.00,,,0.00,Wunderground v.1.15,2013-09-06 15:57:00,
2013-09-06 10:58:00,90.3,67.3,30.11,SSW,196,3.0,4.0,47,0.00,,,0.00,Wunderground v.1.15,2013-09-06 15:58:00,
2013-09-06 10:59:00,90.5,67.5,30.11,SSW,197,3.0,4.0,47,0.00,,,0.00,Wunderground v.1.15,2013-09-06 15:59:00,
2013-09-06 11:00:00,90.5,67.5,30.11,SSW,198,2.0,5.0,47,0.00,,,0.00,Wunderground v.1.15,2013-09-06 16:00:00,
2013-09-06 11:01:00,90.5,66.3,30.11,SSW,200,0.0,5.0,45,0.00,,,0.00,Wunderground v.1.15,2013-09-06 16:01:00,
2013-09-06 11:02:00,90.7,67.7,30.11,SSW,205,0.0,5.0,47,0.00,,,0.00,Wunderground v.1.15,2013-09-06 16:02:00,
2013-09-06 11:04:00,91.0,67.3,30.11,SSW,205,2.0,5.0,46,0.00,,,0.00,Wunderground v.1.15,2013-09-06 16:04:00,
2013-09-06 11:05:00,91.0,67.3,30.11,SSW,205,1.0,5.0,46,0.00,,,0.00,Wunderground v.1.15,2013-09-06 16:05:00,
2013-09-06 11:07:00,91.2,66.9,30.11,SSW,205,1.0,5.0,45,0.00,,,0.00,Wunderground v.1.15,2013-09-06 16:07:00,
2013-09-06 11:09:00,91.6,66.6,30.11,South,191,0.0,3.0,44,0.00,,,0.00,Wunderground v.1.15,2013-09-06 16:09:00,
2013-09-06 11:10:00,91.6,66.6,30.11,SSE,165,2.0,3.0,44,0.00,,,0.00,Wunderground v.1.15,2013-09-06 16:10:00,
2013-09-06 11:11:00,91.8,66.1,30.11,ESE,111,0.0,4.0,43,0.00,,,0.00,Wunderground v.1.15,2013-09-06 16:11:00,
2013-09-06 11:12:00,91.8,66.8,30.11,SSE,152,6.0,6.0,44,0.00,,,0.00,Wunderground v.1.15,2013-09-06 16:12:00,
2013-09-06 11:15:00,91.6,66.6,30.11,SSE,149,1.0,6.0,44,0.00,,,0.00,Wunderground v.1.15,2013-09-06 16:15:00,
2013-09-06 11:16:00,91.6,66.6,30.11,SSE,150,2.0,6.0,44,0.00,,,0.00,Wunderground v.1.15,2013-09-06 16:16:00,
2013-09-06 11:17:00,91.6,66.6,30.11,SSE,150,0.0,6.0,44,0.00,,,0.00,Wunderground v.1.15,2013-09-06 16:17:00,
2013-09-06 11:20:00,92.1,66.4,30.11,ESE,118,0.0,4.0,43,0.00,,,0.00,Wunderground v.1.15,2013-09-06 16:20:00,
2013-09-06 11:22:00,92.3,65.9,30.11,SSE,159,2.0,6.0,42,0.00,,,0.00,Wunderground v.1.15,2013-09-06 16:22:00,
2013-09-06 11:23:00,92.3,65.9,30.11,SSE,168,4.0,6.0,42,0.00,,,0.00,Wunderground v.1.15,2013-09-06 16:23:00,
2013-09-06 11:26:00,92.1,66.4,30.11,SSE,163,0.0,6.0,43,0.00,,,0.00,Wunderground v.1.15,2013-09-06 16:26:00,
2013-09-06 11:28:00,92.1,65.7,30.10,SE,137,0.0,1.0,42,0.00,,,0.00,Wunderground v.1.15,2013-09-06 16:28:00,
2013-09-06 11:29:00,91.8,65.4,30.10,SE,141,2.0,4.0,42,0.00,,,0.00,Wunderground v.1.15,2013-09-06 16:29:00,
2013-09-06 11:31:00,91.8,66.1,30.10,SSE,164,4.0,5.0,43,0.00,,,0.00,Wunderground v.1.15,2013-09-06 16:31:00,
2013-09-06 11:33:00,91.8,66.8,30.10,South,189,5.0,6.0,44,0.00,,,0.00,Wunderground v.1.15,2013-09-06 16:33:00,
2013-09-06 11:34:00,91.8,66.1,30.10,South,188,3.0,6.0,43,0.00,,,0.00,Wunderground v.1.15,2013-09-06 16:34:00,
2013-09-06 11:35:00,92.1,67.1,30.10,South,177,2.0,6.0,44,0.00,,,0.00,Wunderground v.1.15,2013-09-06 16:35:00,
2013-09-06 11:36:00,92.1,65.7,30.10,SE,145,5.0,6.0,42,0.00,,,0.00,Wunderground v.1.15,2013-09-06 16:36:00,
2013-09-06 11:37:00,92.1,64.3,30.10,SSE,168,6.0,6.0,40,0.00,,,0.00,Wunderground v.1.15,2013-09-06 16:37:00,
2013-09-06 11:38:00,92.3,64.5,30.10,South,186,5.0,6.0,40,0.00,,,0.00,Wunderground v.1.15,2013-09-06 16:38:00,
2013-09-06 11:39:00,92.3,64.5,30.10,South,191,9.0,9.0,40,0.00,,,0.00,Wunderground v.1.15,2013-09-06 16:39:00,
2013-09-06 11:41:00,92.3,65.2,30.10,South,177,0.0,10.0,41,0.00,,,0.00,Wunderground v.1.15,2013-09-06 16:41:00,
2013-09-06 11:42:00,92.3,65.2,30.10,SSE,157,0.0,10.0,41,0.00,,,0.00,Wunderground v.1.15,2013-09-06 16:42:00,
2013-09-06 11:43:00,92.5,65.4,30.10,ESE,114,2.0,10.0,41,0.00,,,0.00,Wunderground v.1.15,2013-09-06 16:43:00,
2013-09-06 11:44:00,92.3,65.2,30.10,ESE,121,1.0,10.0,41,0.00,,,0.00,Wunderground v.1.15,2013-09-06 16:44:00,
2013-09-06 11:47:00,92.9,66.4,30.09,East,79,1.0,10.0,42,0.00,,,0.00,Wunderground v.1.15,2013-09-06 16:47:00,
2013-09-06 11:48:00,93.2,65.3,30.10,East,79,1.0,2.0,40,0.00,,,0.00,Wunderground v.1.15,2013-09-06 16:48:00,
2013-09-06 11:49:00,92.9,65.0,30.10,East,79,0.0,2.0,40,0.00,,,0.00,Wunderground v.1.15,2013-09-06 16:49:00,
2013-09-06 11:52:00,92.5,65.4,30.09,South,184,2.0,4.0,41,0.00,,,0.00,Wunderground v.1.15,2013-09-06 16:52:00,
2013-09-06 11:53:00,92.5,65.4,30.09,SSE,162,4.0,5.0,41,0.00,,,0.00,Wunderground v.1.15,2013-09-06 16:53:00,
2013-09-06 11:54:00,92.7,65.6,30.09,SE,126,2.0,6.0,41,0.00,,,0.00,Wunderground v.1.15,2013-09-06 16:54:00,
2013-09-06 11:57:00,92.7,65.6,30.09,SE,140,2.0,6.0,41,0.00,,,0.00,Wunderground v.1.15,2013-09-06 16:57:00,
2013-09-06 11:58:00,92.7,64.8,30.09,SE,132,0.0,6.0,40,0.00,,,0.00,Wunderground v.1.15,2013-09-06 16:58:00,
2013-09-06 11:59:00,92.7,65.6,30.09,SE,129,2.0,4.0,41,0.00,,,0.00,Wunderground v.1.15,2013-09-06 16:59:00,
2013-09-06 12:00:00,92.7,64.8,30.09,East,101,3.0,4.0,40,0.00,,,0.00,Wunderground v.1.15,2013-09-06 17:00:00,
2013-09-06 12:01:00,92.9,65.0,30.09,ENE,74,2.0,5.0,40,0.00,,,0.00,Wunderground v.1.15,2013-09-06 17:01:00,
2013-09-06 12:02:00,93.2,65.3,30.09,East,79,1.0,5.0,40,0.00,,,0.00,Wunderground v.1.15,2013-09-06 17:02:00,
2013-09-06 12:04:00,93.6,64.2,30.09,SE,125,0.0,5.0,38,0.00,,,0.00,Wunderground v.1.15,2013-09-06 17:04:00,
2013-09-06 12:05:00,93.6,64.9,30.09,ESE,116,0.0,5.0,39,0.00,,,0.00,Wunderground v.1.15,2013-09-06 17:05:00,
2013-09-06 12:07:00,93.6,64.9,30.09,SSE,159,1.0,7.0,39,0.00,,,0.00,Wunderground v.1.15,2013-09-06 17:07:00,
2013-09-06 12:08:00,93.6,64.9,30.09,SSE,159,0.0,7.0,39,0.00,,,0.00,Wunderground v.1.15,2013-09-06 17:08:00,
2013-09-06 12:09:00,93.6,64.9,30.09,SSE,159,2.0,3.0,39,0.00,,,0.00,Wunderground v.1.15,2013-09-06 17:09:00,
2013-09-06 12:11:00,93.6,64.2,30.09,SSW,206,4.0,6.0,38,0.00,,,0.00,Wunderground v.1.15,2013-09-06 17:11:00,
2013-09-06 12:13:00,94.0,64.5,30.09,West,269,4.0,6.0,38,0.00,,,0.00,Wunderground v.1.15,2013-09-06 17:13:00,
2013-09-06 12:14:00,94.0,64.5,30.09,West,264,4.0,6.0,38,0.00,,,0.00,Wunderground v.1.15,2013-09-06 17:14:00,
2013-09-06 12:15:00,94.3,64.8,30.09,West,260,2.0,6.0,38,0.00,,,0.00,Wunderground v.1.15,2013-09-06 17:15:00,
2013-09-06 12:16:00,94.3,64.8,30.09,WNW,290,4.0,6.0,38,0.00,,,0.00,Wunderground v.1.15,2013-09-06 17:16:00,
2013-09-06 12:19:00,94.0,64.5,30.09,SW,236,4.0,4.0,38,0.00,,,0.00,Wunderground v.1.15,2013-09-06 17:19:00,
2013-09-06 12:21:00,93.8,64.3,30.09,SW,229,3.0,5.0,38,0.00,,,0.00,Wunderground v.1.15,2013-09-06 17:21:00,
2013-09-06 12:22:00,93.8,65.1,30.09,SW,220,1.0,5.0,39,0.00,,,0.00,Wunderground v.1.15,2013-09-06 17:22:00,
2013-09-06 12:23:00,93.8,65.8,30.09,SW,220,0.0,5.0,40,0.00,,,0.00,Wunderground v.1.15,2013-09-06 17:23:00,
2013-09-06 12:24:00,93.6,64.9,30.09,SE,134,2.0,5.0,39,0.00,,,0.00,Wunderground v.1.15,2013-09-06 17:24:00,
2013-09-06 12:26:00,93.8,64.3,30.09,SSE,159,3.0,7.0,38,0.00,,,0.00,Wunderground v.1.15,2013-09-06 17:26:00,
2013-09-06 12:27:00,93.8,64.3,30.09,SSE,157,3.0,7.0,38,0.00,,,0.00,Wunderground v.1.15,2013-09-06 17:27:00,
2013-09-06 12:28:00,93.8,64.3,30.09,South,169,4.0,7.0,38,0.00,,,0.00,Wunderground v.1.15,2013-09-06 17:28:00,
2013-09-06 12:30:00,93.4,64.0,30.08,SSE,165,2.0,5.0,38,0.00,,,0.00,Wunderground v.1.15,2013-09-06 17:30:00,
2013-09-06 12:31:00,93.4,64.0,30.08,SSE,150,2.0,5.0,38,0.00,,,0.00,Wunderground v.1.15,2013-09-06 17:31:00,
2013-09-06 12:33:00,93.2,63.8,30.08,SE,132,2.0,5.0,38,0.00,,,0.00,Wunderground v.1.15,2013-09-06 17:33:00,
2013-09-06 12:34:00,92.9,64.3,30.08,East,93,0.0,5.0,39,0.00,,,0.00,Wunderground v.1.15,2013-09-06 17:34:00,
2013-09-06 12:35:00,92.9,64.3,30.08,East,92,1.0,5.0,39,0.00,,,0.00,Wunderground v.1.15,2013-09-06 17:35:00,
2013-09-06 12:36:00,92.9,63.6,30.08,East,94,2.0,5.0,38,0.00,,,0.00,Wunderground v.1.15,2013-09-06 17:36:00,
2013-09-06 12:38:00,93.2,63.8,30.08,ESE,113,3.0,5.0,38,0.00,,,0.00,Wunderground v.1.15,2013-09-06 17:38:00,
2013-09-06 12:39:00,93.2,63.8,30.08,East,96,3.0,4.0,38,0.00,,,0.00,Wunderground v.1.15,2013-09-06 17:39:00,
2013-09-06 12:40:00,93.4,64.0,30.08,East,79,4.0,5.0,38,0.00,,,0.00,Wunderground v.1.15,2013-09-06 17:40:00,
2013-09-06 12:41:00,93.4,64.0,30.08,ENE,59,3.0,5.0,38,0.00,,,0.00,Wunderground v.1.15,2013-09-06 17:41:00,
2013-09-06 12:43:00,93.8,63.6,30.08,South,189,3.0,7.0,37,0.00,,,0.00,Wunderground v.1.15,2013-09-06 17:43:00,
2013-09-06 12:45:00,94.0,63.0,30.08,South,186,6.0,10.0,36,0.00,,,0.00,Wunderground v.1.15,2013-09-06 17:45:00,
2013-09-06 12:46:00,94.0,63.8,30.08,SSE,164,5.0,10.0,37,0.00,,,0.00,Wunderground v.1.15,2013-09-06 17:46:00,
2013-09-06 12:48:00,94.0,64.5,30.08,SE,144,4.0,4.0,38,0.00,,,0.00,Wunderground v.1.15,2013-09-06 17:48:00,
2013-09-06 12:49:00,94.3,63.2,30.08,SSW,194,4.0,5.0,36,0.00,,,0.00,Wunderground v.1.15,2013-09-06 17:49:00,
2013-09-06 12:50:00,94.3,62.4,30.08,SSE,166,5.0,6.0,35,0.00,,,0.00,Wunderground v.1.15,2013-09-06 17:50:00,
2013-09-06 12:51:00,94.5,62.6,30.08,South,180,7.0,9.0,35,0.00,,,0.00,Wunderground v.1.15,2013-09-06 17:51:00,
2013-09-06 12:52:00,94.5,62.6,30.08,South,176,6.0,9.0,35,0.00,,,0.00,Wunderground v.1.15,2013-09-06 17:52:00,
2013-09-06 12:53:00,94.7,62.8,30.07,SW,234,5.0,9.0,35,0.00,,,0.00,Wunderground v.1.15,2013-09-06 17:53:00,
2013-09-06 12:55:00,94.7,62.0,30.07,SW,233,3.0,9.0,34,0.00,,,0.00,Wunderground v.1.15,2013-09-06 17:55:00,
2013-09-06 12:57:00,94.5,62.6,30.07,SSW,209,4.0,9.0,35,0.00,,,0.00,Wunderground v.1.15,2013-09-06 17:57:00,
2013-09-06 12:59:00,94.3,62.4,30.07,SSW,210,0.0,3.0,35,0.00,,,0.00,Wunderground v.1.15,2013-09-06 17:59:00,
2013-09-06 13:02:00,94.0,62.2,30.07,SSW,213,1.0,4.0,35,0.00,,,0.00,Wunderground v.1.15,2013-09-06 18:02:00,
2013-09-06 13:04:00,93.6,61.8,30.07,SSW,213,0.0,4.0,35,0.00,,,0.00,Wunderground v.1.15,2013-09-06 18:04:00,
2013-09-06 13:05:00,93.6,62.6,30.07,ESE,117,3.0,4.0,36,0.00,,,0.00,Wunderground v.1.15,2013-09-06 18:05:00,
2013-09-06 13:07:00,93.8,63.6,30.07,ESE,107,3.0,4.0,37,0.00,,,0.00,Wunderground v.1.15,2013-09-06 18:07:00,
2013-09-06 13:08:00,94.0,63.0,30.07,ESE,107,0.0,1.0,36,0.00,,,0.00,Wunderground v.1.15,2013-09-06 18:08:00,
2013-09-06 13:09:00,94.0,62.2,30.07,ESE,107,0.0,1.0,35,0.00,,,0.00,Wunderground v.1.15,2013-09-06 18:09:00,
2013-09-06 13:11:00,94.5,61.8,30.07,ESE,107,0.0,1.0,34,0.00,,,0.00,Wunderground v.1.15,2013-09-06 18:11:00,
2013-09-06 13:12:00,94.7,62.8,30.07,SSE,159,1.0,5.0,35,0.00,,,0.00,Wunderground v.1.15,2013-09-06 18:12:00,
2013-09-06 13:13:00,94.7,62.8,30.07,SSE,159,1.0,5.0,35,0.00,,,0.00,Wunderground v.1.15,2013-09-06 18:13:00,
2013-09-06 13:14:00,94.7,62.8,30.07,SSE,159,0.0,5.0,35,0.00,,,0.00,Wunderground v.1.15,2013-09-06 18:14:00,
2013-09-06 13:15:00,94.7,62.0,30.06,ESE,103,3.0,5.0,34,0.00,,,0.00,Wunderground v.1.15,2013-09-06 18:15:00,
2013-09-06 13:16:00,94.9,63.0,30.07,ESE,103,0.0,5.0,35,0.00,,,0.00,Wunderground v.1.15,2013-09-06 18:16:00,
2013-09-06 13:17:00,94.9,62.1,30.06,ESE,108,1.0,5.0,34,0.00,,,0.00,Wunderground v.1.15,2013-09-06 18:17:00,
2013-09-06 13:18:00,94.9,62.1,30.06,ESE,108,3.0,5.0,34,0.00,,,0.00,Wunderground v.1.15,2013-09-06 18:18:00,
2013-09-06 13:21:00,95.1,61.5,30.06,ESE,107,0.0,1.0,33,0.00,,,0.00,Wunderground v.1.15,2013-09-06 18:21:00,
2013-09-06 13:22:00,95.1,62.3,30.06,East,88,1.0,5.0,34,0.00,,,0.00,Wunderground v.1.15,2013-09-06 18:22:00,
2013-09-06 13:23:00,95.1,60.6,30.06,East,88,1.0,5.0,32,0.00,,,0.00,Wunderground v.1.15,2013-09-06 18:23:00,
2013-09-06 13:27:00,94.7,61.1,30.06,East,80,1.0,7.0,33,0.00,,,0.00,Wunderground v.1.15,2013-09-06 18:27:00,
2013-09-06 13:28:00,94.7,60.3,30.06,East,87,1.0,7.0,32,0.00,,,0.00,Wunderground v.1.15,2013-09-06 18:28:00,
2013-09-06 13:32:00,94.0,61.4,30.06,East,85,3.0,4.0,34,0.00,,,0.00,Wunderground v.1.15,2013-09-06 18:32:00,
2013-09-06 13:33:00,94.0,61.4,30.06,East,85,0.0,4.0,34,0.00,,,0.00,Wunderground v.1.15,2013-09-06 18:33:00,
2013-09-06 13:34:00,94.0,61.4,30.06,East,85,1.0,4.0,34,0.00,,,0.00,Wunderground v.1.15,2013-09-06 18:34:00,
2013-09-06 13:37:00,93.8,61.2,30.06,East,85,0.0,4.0,34,0.00,,,0.00,Wunderground v.1.15,2013-09-06 18:37:00,
2013-09-06 13:38:00,93.8,62.0,30.06,East,85,0.0,1.0,35,0.00,,,0.00,Wunderground v.1.15,2013-09-06 18:38:00,
2013-09-06 13:39:00,93.8,62.0,30.06,East,85,0.0,1.0,35,0.00,,,0.00,Wunderground v.1.15,2013-09-06 18:39:00,
2013-09-06 13:40:00,93.8,61.2,30.05,East,85,0.0,1.0,34,0.00,,,0.00,Wunderground v.1.15,2013-09-06 18:40:00,
2013-09-06 13:41:00,93.6,61.8,30.05,East,85,0.0,1.0,35,0.00,,,0.00,Wunderground v.1.15,2013-09-06 18:41:00,
2013-09-06 13:43:00,93.8,62.0,30.05,East,85,0.0,1.0,35,0.00,,,0.00,Wunderground v.1.15,2013-09-06 18:43:00,
2013-09-06 13:44:00,93.8,62.0,30.05,SE,138,4.0,4.0,35,0.00,,,0.00,Wunderground v.1.15,2013-09-06 18:44:00,
2013-09-06 13:46:00,94.3,63.2,30.05,South,171,0.0,4.0,36,0.00,,,0.00,Wunderground v.1.15,2013-09-06 18:46:00,
2013-09-06 13:48:00,94.9,61.3,30.05,SE,135,2.0,2.0,33,0.00,,,0.00,Wunderground v.1.15,2013-09-06 18:48:00,
2013-09-06 13:49:00,95.1,61.5,30.05,SE,140,0.0,2.0,33,0.00,,,0.00,Wunderground v.1.15,2013-09-06 18:49:00,
2013-09-06 13:51:00,95.4,60.9,30.05,East,86,0.0,5.0,32,0.00,,,0.00,Wunderground v.1.15,2013-09-06 18:51:00,
2013-09-06 13:52:00,95.4,60.9,30.05,East,86,0.0,5.0,32,0.00,,,0.00,Wunderground v.1.15,2013-09-06 18:52:00,
2013-09-06 13:53:00,95.6,61.9,30.05,East,86,1.0,5.0,33,0.00,,,0.00,Wunderground v.1.15,2013-09-06 18:53:00,
2013-09-06 13:54:00,95.9,62.2,30.05,East,86,1.0,5.0,33,0.00,,,0.00,Wunderground v.1.15,2013-09-06 18:54:00,
2013-09-06 13:55:00,96.1,60.6,30.05,East,86,0.0,5.0,31,0.00,,,0.00,Wunderground v.1.15,2013-09-06 18:55:00,
2013-09-06 13:57:00,96.3,60.7,30.05,East,86,0.0,5.0,31,0.00,,,0.00,Wunderground v.1.15,2013-09-06 18:57:00,
2013-09-06 13:59:00,96.3,60.7,30.04,ENE,71,7.0,10.0,31,0.00,,,0.00,Wunderground v.1.15,2013-09-06 18:59:00,
2013-09-06 14:00:00,96.6,60.1,30.05,East,85,6.0,10.0,30,0.00,,,0.00,Wunderground v.1.15,2013-09-06 19:00:00,
2013-09-06 14:01:00,96.6,60.1,30.05,East,82,0.0,10.0,30,0.00,,,0.00,Wunderground v.1.15,2013-09-06 19:01:00,
2013-09-06 14:03:00,96.8,60.3,30.05,ESE,118,2.0,10.0,30,0.00,,,0.00,Wunderground v.1.15,2013-09-06 19:03:00,
2013-09-06 14:04:00,96.8,60.3,30.05,ENE,77,1.0,10.0,30,0.00,,,0.00,Wunderground v.1.15,2013-09-06 19:04:00,
2013-09-06 14:05:00,96.8,60.3,30.04,East,88,0.0,10.0,30,0.00,,,0.00,Wunderground v.1.15,2013-09-06 19:05:00,
2013-09-06 14:06:00,96.6,60.1,30.04,East,83,3.0,10.0,30,0.00,,,0.00,Wunderground v.1.15,2013-09-06 19:06:00,
2013-09-06 14:08:00,96.8,61.2,30.04,East,94,2.0,10.0,31,0.00,,,0.00,Wunderground v.1.15,2013-09-06 19:08:00,
2013-09-06 14:09:00,96.6,61.0,30.04,East,95,3.0,5.0,31,0.00,,,0.00,Wunderground v.1.15,2013-09-06 19:09:00,
2013-09-06 14:10:00,96.8,61.2,30.04,East,90,3.0,6.0,31,0.00,,,0.00,Wunderground v.1.15,2013-09-06 19:10:00,
2013-09-06 14:11:00,96.8,59.3,30.04,East,88,0.0,6.0,29,0.00,,,0.00,Wunderground v.1.15,2013-09-06 19:11:00,
2013-09-06 14:12:00,96.8,59.3,30.04,East,88,2.0,6.0,29,0.00,,,0.00,Wunderground v.1.15,2013-09-06 19:12:00,
2013-09-06 14:13:00,96.8,59.3,30.04,East,88,0.0,6.0,29,0.00,,,0.00,Wunderground v.1.15,2013-09-06 19:13:00,
2013-09-06 14:14:00,97.1,61.4,30.04,ENE,76,0.0,6.0,31,0.00,,,0.00,Wunderground v.1.15,2013-09-06 19:14:00,
2013-09-06 14:15:00,97.1,60.5,30.03,ENE,76,0.0,6.0,30,0.00,,,0.00,Wunderground v.1.15,2013-09-06 19:15:00,
2013-09-06 14:17:00,97.1,59.6,30.03,ENE,76,2.0,6.0,29,0.00,,,0.00,Wunderground v.1.15,2013-09-06 19:17:00,
2013-09-06 14:19:00,97.1,59.6,30.03,SSW,192,4.0,4.0,29,0.00,,,0.00,Wunderground v.1.15,2013-09-06 19:19:00,
2013-09-06 14:20:00,97.1,59.6,30.03,ESE,121,1.0,4.0,29,0.00,,,0.00,Wunderground v.1.15,2013-09-06 19:20:00,
2013-09-06 14:21:00,97.1,60.5,30.03,ESE,105,2.0,4.0,30,0.00,,,0.00,Wunderground v.1.15,2013-09-06 19:21:00,
2013-09-06 14:22:00,97.3,59.7,30.03,ESE,105,1.0,4.0,29,0.00,,,0.00,Wunderground v.1.15,2013-09-06 19:22:00,
2013-09-06 14:25:00,97.3,59.7,30.03,SSE,155,0.0,5.0,29,0.00,,,0.00,Wunderground v.1.15,2013-09-06 19:25:00,
2013-09-06 14:26:00,97.3,59.7,30.03,SSE,150,0.0,5.0,29,0.00,,,0.00,Wunderground v.1.15,2013-09-06 19:26:00,
2013-09-06 14:27:00,97.3,60.7,30.03,SSE,150,0.0,5.0,30,0.00,,,0.00,Wunderground v.1.15,2013-09-06 19:27:00,
2013-09-06 14:30:00,96.8,58.3,30.03,SSE,149,0.0,1.0,28,0.00,,,0.00,Wunderground v.1.15,2013-09-06 19:30:00,
2013-09-06 14:31:00,97.1,59.6,30.03,SSE,149,0.0,1.0,29,0.00,,,0.00,Wunderground v.1.15,2013-09-06 19:31:00,
2013-09-06 14:32:00,97.5,59.9,30.03,SSE,149,1.0,1.0,29,0.00,,,0.00,Wunderground v.1.15,2013-09-06 19:32:00,
2013-09-06 14:34:00,98.0,59.3,30.03,East,98,0.0,7.0,28,0.00,,,0.00,Wunderground v.1.15,2013-09-06 19:34:00,
2013-09-06 14:35:00,97.8,59.2,30.02,SSE,152,3.0,7.0,28,0.00,,,0.00,Wunderground v.1.15,2013-09-06 19:35:00,
2013-09-06 14:36:00,97.8,61.1,30.02,South,177,4.0,7.0,30,0.00,,,0.00,Wunderground v.1.15,2013-09-06 19:36:00,
2013-09-06 14:37:00,97.8,61.1,30.02,South,184,3.0,7.0,30,0.00,,,0.00,Wunderground v.1.15,2013-09-06 19:37:00,
2013-09-06 14:38:00,97.8,62.0,30.02,South,184,0.0,7.0,31,0.00,,,0.00,Wunderground v.1.15,2013-09-06 19:38:00,
2013-09-06 14:39:00,98.0,59.3,30.02,NE,45,10.0,10.0,28,0.00,,,0.00,Wunderground v.1.15,2013-09-06 19:39:00,
2013-09-06 14:40:00,98.0,59.3,30.02,NE,42,10.0,10.0,28,0.00,,,0.00,Wunderground v.1.15,2013-09-06 19:40:00,
2013-09-06 14:41:00,97.8,60.2,30.02,NNE,32,4.0,10.0,29,0.00,,,0.00,Wunderground v.1.15,2013-09-06 19:41:00,
2013-09-06 14:42:00,97.5,59.9,30.02,NNE,30,2.0,10.0,29,0.00,,,0.00,Wunderground v.1.15,2013-09-06 19:42:00,
2013-09-06 14:43:00,97.5,59.9,30.02,NNE,22,0.0,10.0,29,0.00,,,0.00,Wunderground v.1.15,2013-09-06 19:43:00,
2013-09-06 14:45:00,97.5,60.9,30.02,NNE,28,7.0,10.0,30,0.00,,,0.00,Wunderground v.1.15,2013-09-06 19:45:00,
2013-09-06 14:46:00,97.8,61.1,30.02,NNE,24,1.0,10.0,30,0.00,,,0.00,Wunderground v.1.15,2013-09-06 19:46:00,
2013-09-06 14:47:00,97.8,59.2,30.02,NNE,24,2.0,10.0,28,0.00,,,0.00,Wunderground v.1.15,2013-09-06 19:47:00,
2013-09-06 14:48:00,97.8,60.2,30.02,NE,51,3.0,10.0,29,0.00,,,0.00,Wunderground v.1.15,2013-09-06 19:48:00,
2013-09-06 14:49:00,98.0,60.3,30.02,ENE,62,2.0,4.0,29,0.00,,,0.00,Wunderground v.1.15,2013-09-06 19:49:00,
2013-09-06 14:52:00,98.2,60.5,30.01,North,355,5.0,7.0,29,0.00,,,0.00,Wunderground v.1.15,2013-09-06 19:52:00,
2013-09-06 14:53:00,98.2,59.5,30.01,NNW,338,4.0,7.0,28,0.00,,,0.00,Wunderground v.1.15,2013-09-06 19:53:00,
2013-09-06 14:54:00,98.2,58.5,30.01,WNW,286,3.0,9.0,27,0.00,,,0.00,Wunderground v.1.15,2013-09-06 19:54:00,
2013-09-06 14:55:00,98.2,60.5,30.01,WNW,287,3.0,9.0,29,0.00,,,0.00,Wunderground v.1.15,2013-09-06 19:55:00,
2013-09-06 14:57:00,98.0,59.3,30.01,NNW,328,1.0,9.0,28,0.00,,,0.00,Wunderground v.1.15,2013-09-06 19:57:00,
2013-09-06 14:58:00,97.8,59.2,30.01,NNE,21,0.0,9.0,28,0.00,,,0.00,Wunderground v.1.15,2013-09-06 19:58:00,
2013-09-06 14:59:00,98.0,60.3,30.01,NNE,20,0.0,2.0,29,0.00,,,0.00,Wunderground v.1.15,2013-09-06 19:59:00,
2013-09-06 15:01:00,98.2,60.5,30.01,SSE,148,5.0,5.0,29,0.00,,,0.00,Wunderground v.1.15,2013-09-06 20:01:00,
2013-09-06 15:02:00,98.2,59.5,30.01,SSE,165,7.0,9.0,28,0.00,,,0.00,Wunderground v.1.15,2013-09-06 20:02:00,
2013-09-06 15:03:00,98.2,59.5,30.01,SSE,159,5.0,9.0,28,0.00,,,0.00,Wunderground v.1.15,2013-09-06 20:03:00,
2013-09-06 15:05:00,98.0,60.3,30.01,SE,130,3.0,9.0,29,0.00,,,0.00,Wunderground v.1.15,2013-09-06 20:05:00,
2013-09-06 15:06:00,98.0,59.3,30.01,SSE,157,4.0,9.0,28,0.00,,,0.00,Wunderground v.1.15,2013-09-06 20:06:00,
2013-09-06 15:07:00,97.8,59.2,30.01,South,180,5.0,9.0,28,0.00,,,0.00,Wunderground v.1.15,2013-09-06 20:07:00,
2013-09-06 15:09:00,97.5,59.9,30.01,East,86,1.0,5.0,29,0.00,,,0.00,Wunderground v.1.15,2013-09-06 20:09:00,
2013-09-06 15:10:00,97.3,59.7,30.01,East,80,4.0,5.0,29,0.00,,,0.00,Wunderground v.1.15,2013-09-06 20:10:00,
2013-09-06 15:11:00,97.1,59.6,30.01,ENE,63,2.0,5.0,29,0.00,,,0.00,Wunderground v.1.15,2013-09-06 20:11:00,
2013-09-06 15:12:00,97.1,59.6,30.01,ENE,63,0.0,5.0,29,0.00,,,0.00,Wunderground v.1.15,2013-09-06 20:12:00,
2013-09-06 15:13:00,96.8,59.3,30.01,ENE,63,0.0,5.0,29,0.00,,,0.00,Wunderground v.1.15,2013-09-06 20:13:00,
2013-09-06 15:14:00,96.8,59.3,30.01,ENE,71,0.0,5.0,29,0.00,,,0.00,Wunderground v.1.15,2013-09-06 20:14:00,
2013-09-06 15:15:00,96.6,59.1,30.01,ENE,71,1.0,5.0,29,0.00,,,0.00,Wunderground v.1.15,2013-09-06 20:15:00,
2013-09-06 15:16:00,96.3,58.9,30.00,ENE,71,0.0,5.0,29,0.00,,,0.00,Wunderground v.1.15,2013-09-06 20:16:00,
2013-09-06 15:18:00,96.3,59.8,30.00,East,81,0.0,5.0,30,0.00,,,0.00,Wunderground v.1.15,2013-09-06 20:18:00,
2013-09-06 15:20:00,96.3,60.7,30.00,East,86,6.0,11.0,31,0.00,,,0.00,Wunderground v.1.15,2013-09-06 20:20:00,
2013-09-06 15:21:00,96.6,60.1,30.00,ENE,78,4.0,12.0,30,0.00,,,0.00,Wunderground v.1.15,2013-09-06 20:21:00,
2013-09-06 15:23:00,96.6,60.1,30.00,East,99,4.0,12.0,30,0.00,,,0.00,Wunderground v.1.15,2013-09-06 20:23:00,
2013-09-06 15:25:00,96.6,61.0,30.00,East,95,7.0,12.0,31,0.00,,,0.00,Wunderground v.1.15,2013-09-06 20:25:00,
2013-09-06 15:27:00,96.6,60.1,30.00,ESE,102,0.0,12.0,30,0.00,,,0.00,Wunderground v.1.15,2013-09-06 20:27:00,
2013-09-06 15:28:00,96.8,60.3,30.00,East,99,5.0,12.0,30,0.00,,,0.00,Wunderground v.1.15,2013-09-06 20:28:00,
2013-09-06 15:32:00,97.1,60.5,30.00,ENE,77,5.0,11.0,30,0.00,,,0.00,Wunderground v.1.15,2013-09-06 20:32:00,
2013-09-06 15:33:00,97.3,61.6,30.00,ESE,105,4.0,11.0,31,0.00,,,0.00,Wunderground v.1.15,2013-09-06 20:33:00,
2013-09-06 15:35:00,97.5,60.9,29.99,East,101,4.0,12.0,30,0.00,,,0.00,Wunderground v.1.15,2013-09-06 20:35:00,
2013-09-06 15:36:00,97.5,59.9,29.99,East,85,5.0,12.0,29,0.00,,,0.00,Wunderground v.1.15,2013-09-06 20:36:00,
2013-09-06 15:37:00,97.8,60.2,29.99,East,88,2.0,12.0,29,0.00,,,0.00,Wunderground v.1.15,2013-09-06 20:37:00,
2013-09-06 15:38:00,98.0,59.3,29.99,ENE,78,3.0,5.0,28,0.00,,,0.00,Wunderground v.1.15,2013-09-06 20:38:00,
2013-09-06 15:39:00,98.0,59.3,29.99,ESE,119,1.0,5.0,28,0.00,,,0.00,Wunderground v.1.15,2013-09-06 20:39:00,
2013-09-06 15:40:00,98.0,59.3,29.99,East,97,1.0,6.0,28,0.00,,,0.00,Wunderground v.1.15,2013-09-06 20:40:00,
2013-09-06 15:42:00,97.8,59.2,29.99,ESE,114,2.0,6.0,28,0.00,,,0.00,Wunderground v.1.15,2013-09-06 20:42:00,
2013-09-06 15:43:00,97.8,59.2,29.99,ESE,115,4.0,6.0,28,0.00,,,0.00,Wunderground v.1.15,2013-09-06 20:43:00,
2013-09-06 15:44:00,97.8,59.2,29.99,East,89,1.0,6.0,28,0.00,,,0.00,Wunderground v.1.15,2013-09-06 20:44:00,
2013-09-06 15:45:00,97.8,59.2,29.99,East,82,4.0,6.0,28,0.00,,,0.00,Wunderground v.1.15,2013-09-06 20:45:00,
2013-09-06 15:47:00,97.8,59.2,29.99,East,101,3.0,6.0,28,0.00,,,0.00,Wunderground v.1.15,2013-09-06 20:47:00,
2013-09-06 15:48:00,97.8,59.2,29.99,East,96,6.0,6.0,28,0.00,,,0.00,Wunderground v.1.15,2013-09-06 20:48:00,
2013-09-06 15:49:00,97.8,59.2,29.99,ENE,73,4.0,5.0,28,0.00,,,0.00,Wunderground v.1.15,2013-09-06 20:49:00,
2013-09-06 15:50:00,97.8,59.2,29.99,SSE,163,5.0,7.0,28,0.00,,,0.00,Wunderground v.1.15,2013-09-06 20:50:00,
2013-09-06 15:53:00,97.3,59.7,29.99,East,96,4.0,11.0,29,0.00,,,0.00,Wunderground v.1.15,2013-09-06 20:53:00,
2013-09-06 15:54:00,97.3,59.7,29.99,ESE,117,1.0,11.0,29,0.00,,,0.00,Wunderground v.1.15,2013-09-06 20:54:00,
2013-09-06 15:55:00,97.3,59.7,29.99,East,86,6.0,11.0,29,0.00,,,0.00,Wunderground v.1.15,2013-09-06 20:55:00,
2013-09-06 15:56:00,97.3,59.7,29.99,East,84,3.0,11.0,29,0.00,,,0.00,Wunderground v.1.15,2013-09-06 20:56:00,
2013-09-06 15:58:00,97.5,58.9,29.99,SSE,160,1.0,3.0,28,0.00,,,0.00,Wunderground v.1.15,2013-09-06 20:58:00,
2013-09-06 15:59:00,97.5,58.9,29.99,ESE,111,1.0,7.0,28,0.00,,,0.00,Wunderground v.1.15,2013-09-06 20:59:00,
2013-09-06 16:00:00,97.5,58.9,29.99,East,81,5.0,10.0,28,0.00,,,0.00,Wunderground v.1.15,2013-09-06 21:00:00,
2013-09-06 16:01:00,97.5,58.9,29.99,East,84,7.0,10.0,28,0.00,,,0.00,Wunderground v.1.15,2013-09-06 21:01:00,
2013-09-06 16:02:00,97.8,59.2,29.99,East,91,2.0,11.0,28,0.00,,,0.00,Wunderground v.1.15,2013-09-06 21:02:00,
2013-09-06 16:04:00,97.8,58.2,29.99,East,85,3.0,11.0,27,0.00,,,0.00,Wunderground v.1.15,2013-09-06 21:04:00,
2013-09-06 16:06:00,97.8,59.2,29.99,East,95,0.0,11.0,28,0.00,,,0.00,Wunderground v.1.15,2013-09-06 21:06:00,
2013-09-06 16:07:00,97.8,59.2,29.99,East,96,1.0,11.0,28,0.00,,,0.00,Wunderground v.1.15,2013-09-06 21:07:00,
2013-09-06 16:09:00,97.8,59.2,29.99,ESE,103,1.0,4.0,28,0.00,,,0.00,Wunderground v.1.15,2013-09-06 21:09:00,
2013-09-06 16:11:00,98.0,58.3,29.98,East,94,4.0,4.0,27,0.00,,,0.00,Wunderground v.1.15,2013-09-06 21:11:00,
2013-09-06 16:12:00,98.0,59.3,29.99,ESE,121,2.0,12.0,28,0.00,,,0.00,Wunderground v.1.15,2013-09-06 21:12:00,
2013-09-06 16:15:00,98.0,59.3,29.98,NNE,30,3.0,12.0,28,0.00,,,0.00,Wunderground v.1.15,2013-09-06 21:15:00,
2013-09-06 16:16:00,98.0,59.3,29.98,NE,54,5.0,12.0,28,0.00,,,0.00,Wunderground v.1.15,2013-09-06 21:16:00,
2013-09-06 16:17:00,98.0,59.3,29.98,NE,44,0.0,12.0,28,0.00,,,0.00,Wunderground v.1.15,2013-09-06 21:17:00,
2013-09-06 16:19:00,98.2,59.5,29.98,SE,126,3.0,5.0,28,0.00,,,0.00,Wunderground v.1.15,2013-09-06 21:19:00,
2013-09-06 16:22:00,97.5,58.9,29.98,SE,136,1.0,5.0,28,0.00,,,0.00,Wunderground v.1.15,2013-09-06 21:22:00,
2013-09-06 16:24:00,97.5,59.9,29.98,ENE,62,1.0,6.0,29,0.00,,,0.00,Wunderground v.1.15,2013-09-06 21:24:00,
2013-09-06 16:25:00,97.8,58.2,29.98,ENE,57,3.0,6.0,27,0.00,,,0.00,Wunderground v.1.15,2013-09-06 21:25:00,
2013-09-06 16:27:00,98.2,59.5,29.98,East,84,0.0,7.0,28,0.00,,,0.00,Wunderground v.1.15,2013-09-06 21:27:00,
2013-09-06 16:28:00,98.2,59.5,29.98,East,84,0.0,7.0,28,0.00,,,0.00,Wunderground v.1.15,2013-09-06 21:28:00,
2013-09-06 16:29:00,98.2,59.5,29.98,SE,136,3.0,4.0,28,0.00,,,0.00,Wunderground v.1.15,2013-09-06 21:29:00,
2013-09-06 16:32:00,97.8,58.2,29.98,ESE,117,0.0,7.0,27,0.00,,,0.00,Wunderground v.1.15,2013-09-06 21:32:00,
2013-09-06 16:33:00,97.8,58.2,29.98,ESE,111,1.0,7.0,27,0.00,,,0.00,Wunderground v.1.15,2013-09-06 21:33:00,
2013-09-06 16:34:00,97.8,59.2,29.98,East,96,2.0,7.0,28,0.00,,,0.00,Wunderground v.1.15,2013-09-06 21:34:00,
2013-09-06 16:35:00,97.8,59.2,29.98,East,82,6.0,7.0,28,0.00,,,0.00,Wunderground v.1.15,2013-09-06 21:35:00,
2013-09-06 16:38:00,98.0,59.3,29.98,ESE,123,3.0,10.0,28,0.00,,,0.00,Wunderground v.1.15,2013-09-06 21:38:00,
2013-09-06 16:39:00,97.8,59.2,29.98,ESE,118,3.0,3.0,28,0.00,,,0.00,Wunderground v.1.15,2013-09-06 21:39:00,
2013-09-06 16:40:00,97.8,58.2,29.98,SE,137,0.0,4.0,27,0.00,,,0.00,Wunderground v.1.15,2013-09-06 21:40:00,
2013-09-06 16:43:00,97.8,58.2,29.97,East,88,1.0,4.0,27,0.00,,,0.00,Wunderground v.1.15,2013-09-06 21:43:00,
2013-09-06 16:45:00,98.0,58.3,29.98,ENE,71,1.0,5.0,27,0.00,,,0.00,Wunderground v.1.15,2013-09-06 21:45:00,
2013-09-06 16:47:00,98.0,58.3,29.98,ENE,66,0.0,5.0,27,0.00,,,0.00,Wunderground v.1.15,2013-09-06 21:47:00,
2013-09-06 16:48:00,98.0,58.3,29.97,NE,34,3.0,4.0,27,0.00,,,0.00,Wunderground v.1.15,2013-09-06 21:48:00,
2013-09-06 16:49:00,98.0,58.3,29.97,NE,50,3.0,4.0,27,0.00,,,0.00,Wunderground v.1.15,2013-09-06 21:49:00,
2013-09-06 16:50:00,98.2,58.5,29.97,NE,50,4.0,5.0,27,0.00,,,0.00,Wunderground v.1.15,2013-09-06 21:50:00,
2013-09-06 16:52:00,98.2,57.4,29.97,NE,42,9.0,9.0,26,0.00,,,0.00,Wunderground v.1.15,2013-09-06 21:52:00,
2013-09-06 16:53:00,98.5,58.8,29.97,NNW,348,4.0,9.0,27,0.00,,,0.00,Wunderground v.1.15,2013-09-06 21:53:00,
2013-09-06 16:54:00,98.5,58.8,29.97,NNW,333,3.0,9.0,27,0.00,,,0.00,Wunderground v.1.15,2013-09-06 21:54:00,
2013-09-06 16:55:00,98.5,58.8,29.97,NE,41,5.0,9.0,27,0.00,,,0.00,Wunderground v.1.15,2013-09-06 21:55:00,
2013-09-06 16:57:00,98.7,58.9,29.97,ENE,63,5.0,9.0,27,0.00,,,0.00,Wunderground v.1.15,2013-09-06 21:57:00,
2013-09-06 16:59:00,98.7,58.9,29.97,NE,45,5.0,6.0,27,0.00,,,0.00,Wunderground v.1.15,2013-09-06 21:59:00,
2013-09-06 17:00:00,98.7,58.9,29.97,East,88,5.0,6.0,27,0.00,,,0.00,Wunderground v.1.15,2013-09-06 22:00:00,
2013-09-06 17:01:00,98.7,57.9,29.97,East,79,2.0,6.0,26,0.00,,,0.00,Wunderground v.1.15,2013-09-06 22:01:00,
2013-09-06 17:02:00,98.7,58.9,29.97,ENE,71,3.0,6.0,27,0.00,,,0.00,Wunderground v.1.15,2013-09-06 22:02:00,
2013-09-06 17:04:00,98.7,56.8,29.97,North,5,0.0,6.0,25,0.00,,,0.00,Wunderground v.1.15,2013-09-06 22:04:00,
2013-09-06 17:06:00,98.7,58.9,29.97,SSE,149,4.0,6.0,27,0.00,,,0.00,Wunderground v.1.15,2013-09-06 22:06:00,
2013-09-06 17:07:00,98.7,57.9,29.97,ESE,113,0.0,6.0,26,0.00,,,0.00,Wunderground v.1.15,2013-09-06 22:07:00,
2013-09-06 17:09:00,98.2,57.4,29.97,SSE,159,2.0,3.0,26,0.00,,,0.00,Wunderground v.1.15,2013-09-06 22:09:00,
2013-09-06 17:10:00,98.2,58.5,29.97,SSE,162,0.0,3.0,27,0.00,,,0.00,Wunderground v.1.15,2013-09-06 22:10:00,
2013-09-06 17:12:00,98.2,57.4,29.97,East,80,5.0,5.0,26,0.00,,,0.00,Wunderground v.1.15,2013-09-06 22:12:00,
2013-09-06 17:13:00,98.2,57.4,29.97,East,82,0.0,6.0,26,0.00,,,0.00,Wunderground v.1.15,2013-09-06 22:13:00,
2013-09-06 17:15:00,98.2,57.4,29.97,ENE,74,4.0,7.0,26,0.00,,,0.00,Wunderground v.1.15,2013-09-06 22:15:00,
2013-09-06 17:16:00,98.5,57.7,29.97,NNE,32,4.0,7.0,26,0.00,,,0.00,Wunderground v.1.15,2013-09-06 22:16:00,
2013-09-06 17:17:00,98.5,57.7,29.97,ENE,69,7.0,7.0,26,0.00,,,0.00,Wunderground v.1.15,2013-09-06 22:17:00,
2013-09-06 17:18:00,98.5,58.8,29.97,ENE,59,4.0,4.0,27,0.00,,,0.00,Wunderground v.1.15,2013-09-06 22:18:00,
2013-09-06 17:20:00,98.5,58.8,29.97,NNE,19,0.0,7.0,27,0.00,,,0.00,Wunderground v.1.15,2013-09-06 22:20:00,
2013-09-06 17:22:00,98.5,57.7,29.96,NE,37,0.0,7.0,26,0.00,,,0.00,Wunderground v.1.15,2013-09-06 22:22:00,
2013-09-06 17:23:00,98.2,56.4,29.96,NE,37,0.0,7.0,25,0.00,,,0.00,Wunderground v.1.15,2013-09-06 22:23:00,
2013-09-06 17:25:00,98.2,57.4,29.97,ESE,117,0.0,7.0,26,0.00,,,0.00,Wunderground v.1.15,2013-09-06 22:25:00,
2013-09-06 17:27:00,98.0,58.3,29.97,SE,126,1.0,7.0,27,0.00,,,0.00,Wunderground v.1.15,2013-09-06 22:27:00,
2013-09-06 17:29:00,97.8,58.2,29.97,South,181,3.0,6.0,27,0.00,,,0.00,Wunderground v.1.15,2013-09-06 22:29:00,
2013-09-06 17:30:00,97.8,58.2,29.97,SSW,194,8.0,8.0,27,0.00,,,0.00,Wunderground v.1.15,2013-09-06 22:30:00,
2013-09-06 17:31:00,97.5,57.9,29.97,South,181,3.0,8.0,27,0.00,,,0.00,Wunderground v.1.15,2013-09-06 22:31:00,
2013-09-06 17:32:00,97.5,57.9,29.96,South,186,4.0,8.0,27,0.00,,,0.00,Wunderground v.1.15,2013-09-06 22:32:00,
2013-09-06 17:35:00,97.5,57.9,29.96,SE,135,1.0,8.0,27,0.00,,,0.00,Wunderground v.1.15,2013-09-06 22:35:00,
2013-09-06 17:36:00,97.5,57.9,29.96,SE,136,0.0,8.0,27,0.00,,,0.00,Wunderground v.1.15,2013-09-06 22:36:00,
2013-09-06 17:37:00,97.5,57.9,29.96,South,189,7.0,8.0,27,0.00,,,0.00,Wunderground v.1.15,2013-09-06 22:37:00,
2013-09-06 17:39:00,97.5,57.9,29.96,South,184,3.0,7.0,27,0.00,,,0.00,Wunderground v.1.15,2013-09-06 22:39:00,
2013-09-06 17:40:00,97.3,56.7,29.96,South,183,6.0,7.0,26,0.00,,,0.00,Wunderground v.1.15,2013-09-06 22:40:00,
2013-09-06 17:41:00,97.3,57.7,29.96,SSW,196,5.0,7.0,27,0.00,,,0.00,Wunderground v.1.15,2013-09-06 22:41:00,
2013-09-06 17:43:00,97.3,56.7,29.96,SSW,205,0.0,7.0,26,0.00,,,0.00,Wunderground v.1.15,2013-09-06 22:43:00,
2013-09-06 17:44:00,97.3,57.7,29.96,SSW,205,0.0,7.0,27,0.00,,,0.00,Wunderground v.1.15,2013-09-06 22:44:00,
2013-09-06 17:46:00,97.3,56.7,29.96,SSW,205,0.0,7.0,26,0.00,,,0.00,Wunderground v.1.15,2013-09-06 22:46:00,
2013-09-06 17:48:00,97.5,56.9,29.97,SSW,205,0.0,3.0,26,0.00,,,0.00,Wunderground v.1.15,2013-09-06 22:48:00,
2013-09-06 17:49:00,97.5,56.9,29.97,SSW,205,0.0,3.0,26,0.00,,,0.00,Wunderground v.1.15,2013-09-06 22:49:00,
2013-09-06 17:50:00,97.5,56.9,29.96,SSW,205,0.0,3.0,26,0.00,,,0.00,Wunderground v.1.15,2013-09-06 22:50:00,
2013-09-06 17:51:00,97.5,56.9,29.96,ENE,74,0.0,3.0,26,0.00,,,0.00,Wunderground v.1.15,2013-09-06 22:51:00,
2013-09-06 17:52:00,97.5,56.9,29.96,East,80,1.0,3.0,26,0.00,,,0.00,Wunderground v.1.15,2013-09-06 22:52:00,
2013-09-06 17:53:00,97.5,56.9,29.96,East,80,1.0,3.0,26,0.00,,,0.00,Wunderground v.1.15,2013-09-06 22:53:00,
2013-09-06 17:55:00,97.5,56.9,29.96,East,80,1.0,3.0,26,0.00,,,0.00,Wunderground v.1.15,2013-09-06 22:55:00,
2013-09-06 17:56:00,97.5,56.9,29.96,East,80,0.0,3.0,26,0.00,,,0.00,Wunderground v.1.15,2013-09-06 22:56:00,
2013-09-06 17:58:00,97.5,56.9,29.96,ENE,75,2.0,3.0,26,0.00,,,0.00,Wunderground v.1.15,2013-09-06 22:58:00,
2013-09-06 18:00:00,97.8,56.0,29.96,ENE,75,0.0,2.0,25,0.00,,,0.00,Wunderground v.1.15,2013-09-06 23:00:00,
2013-09-06 18:02:00,97.5,56.9,29.96,ENE,76,1.0,2.0,26,0.00,,,0.00,Wunderground v.1.15,2013-09-06 23:02:00,
2013-09-06 18:05:00,97.3,56.7,29.96,ENE,76,0.0,2.0,26,0.00,,,0.00,Wunderground v.1.15,2013-09-06 23:05:00,
2013-09-06 18:06:00,97.5,57.9,29.96,NNW,348,3.0,3.0,27,0.00,,,0.00,Wunderground v.1.15,2013-09-06 23:06:00,
2013-09-06 18:07:00,97.5,56.9,29.96,North,5,1.0,6.0,26,0.00,,,0.00,Wunderground v.1.15,2013-09-06 23:07:00,
2013-09-06 18:08:00,97.5,56.9,29.96,NNE,13,1.0,3.0,26,0.00,,,0.00,Wunderground v.1.15,2013-09-06 23:08:00,
2013-09-06 18:11:00,97.5,56.9,29.96,NE,38,1.0,3.0,26,0.00,,,0.00,Wunderground v.1.15,2013-09-06 23:11:00,
2013-09-06 18:12:00,97.8,57.1,29.96,NE,51,2.0,3.0,26,0.00,,,0.00,Wunderground v.1.15,2013-09-06 23:12:00,
2013-09-06 18:13:00,97.5,56.9,29.96,NE,51,0.0,3.0,26,0.00,,,0.00,Wunderground v.1.15,2013-09-06 23:13:00,
2013-09-06 18:16:00,97.3,56.7,29.96,NE,52,0.0,3.0,26,0.00,,,0.00,Wunderground v.1.15,2013-09-06 23:16:00,
2013-09-06 18:17:00,97.3,56.7,29.96,NE,52,0.0,3.0,26,0.00,,,0.00,Wunderground v.1.15,2013-09-06 23:17:00,
2013-09-06 18:18:00,97.3,57.7,29.96,NE,52,0.0,1.0,27,0.00,,,0.00,Wunderground v.1.15,2013-09-06 23:18:00,
2013-09-06 18:19:00,97.3,57.7,29.96,South,182,1.0,4.0,27,0.00,,,0.00,Wunderground v.1.15,2013-09-06 23:19:00,
2013-09-06 18:22:00,97.3,56.7,29.96,South,179,0.0,4.0,26,0.00,,,0.00,Wunderground v.1.15,2013-09-06 23:22:00,
2013-09-06 18:23:00,97.3,57.7,29.96,SSE,165,2.0,4.0,27,0.00,,,0.00,Wunderground v.1.15,2013-09-06 23:23:00,
2013-09-06 18:24:00,97.1,57.6,29.96,South,191,4.0,6.0,27,0.00,,,0.00,Wunderground v.1.15,2013-09-06 23:24:00,
2013-09-06 18:27:00,97.1,57.6,29.96,South,188,0.0,6.0,27,0.00,,,0.00,Wunderground v.1.15,2013-09-06 23:27:00,
2013-09-06 18:28:00,96.8,57.3,29.96,South,176,0.0,2.0,27,0.00,,,0.00,Wunderground v.1.15,2013-09-06 23:28:00,
2013-09-06 18:29:00,96.8,58.3,29.96,SSE,148,0.0,2.0,28,0.00,,,0.00,Wunderground v.1.15,2013-09-06 23:29:00,
2013-09-06 18:31:00,96.8,57.3,29.96,SSW,198,3.0,6.0,27,0.00,,,0.00,Wunderground v.1.15,2013-09-06 23:31:00,
2013-09-06 18:32:00,96.8,57.3,29.96,South,176,1.0,6.0,27,0.00,,,0.00,Wunderground v.1.15,2013-09-06 23:32:00,
2013-09-06 18:33:00,96.8,57.3,29.96,South,178,3.0,6.0,27,0.00,,,0.00,Wunderground v.1.15,2013-09-06 23:33:00,
2013-09-06 18:34:00,96.8,57.3,29.96,South,178,2.0,6.0,27,0.00,,,0.00,Wunderground v.1.15,2013-09-06 23:34:00,
2013-09-06 18:35:00,96.8,57.3,29.96,South,177,1.0,6.0,27,0.00,,,0.00,Wunderground v.1.15,2013-09-06 23:35:00,
2013-09-06 18:38:00,96.6,57.1,29.96,South,177,0.0,1.0,27,0.00,,,0.00,Wunderground v.1.15,2013-09-06 23:38:00,
2013-09-06 18:39:00,96.8,57.3,29.96,South,177,0.0,1.0,27,0.00,,,0.00,Wunderground v.1.15,2013-09-06 23:39:00,
2013-09-06 18:40:00,97.1,58.6,29.96,South,177,0.0,1.0,28,0.00,,,0.00,Wunderground v.1.15,2013-09-06 23:40:00,
2013-09-06 18:41:00,97.1,58.6,29.96,South,177,0.0,1.0,28,0.00,,,0.00,Wunderground v.1.15,2013-09-06 23:41:00,
2013-09-06 18:43:00,97.1,58.6,29.96,East,100,0.0,4.0,28,0.00,,,0.00,Wunderground v.1.15,2013-09-06 23:43:00,
2013-09-06 18:44:00,97.1,58.6,29.96,East,96,4.0,4.0,28,0.00,,,0.00,Wunderground v.1.15,2013-09-06 23:44:00,
2013-09-06 18:45:00,97.1,58.6,29.96,ESE,104,0.0,10.0,28,0.00,,,0.00,Wunderground v.1.15,2013-09-06 23:45:00,
2013-09-06 18:46:00,97.1,58.6,29.96,SE,141,4.0,10.0,28,0.00,,,0.00,Wunderground v.1.15,2013-09-06 23:46:00,
2013-09-06 18:48:00,97.1,58.6,29.96,ESE,108,6.0,12.0,28,0.00,,,0.00,Wunderground v.1.15,2013-09-06 23:48:00,
2013-09-06 18:49:00,96.8,57.3,29.96,East,88,3.0,5.0,27,0.00,,,0.00,Wunderground v.1.15,2013-09-06 23:49:00,
2013-09-06 18:50:00,96.6,58.2,29.96,ESE,104,2.0,9.0,28,0.00,,,0.00,Wunderground v.1.15,2013-09-06 23:50:00,
2013-09-06 18:51:00,96.6,58.2,29.96,ESE,108,1.0,9.0,28,0.00,,,0.00,Wunderground v.1.15,2013-09-06 23:51:00,
2013-09-06 18:54:00,96.1,57.7,29.96,ESE,119,6.0,13.0,28,0.00,,,0.00,Wunderground v.1.15,2013-09-06 23:54:00,
2013-09-06 18:56:00,96.1,57.7,29.96,SSE,147,4.0,13.0,28,0.00,,,0.00,Wunderground v.1.15,2013-09-06 23:56:00,
2013-09-06 18:58:00,95.9,59.5,29.96,East,87,5.0,13.0,30,0.00,,,0.00,Wunderground v.1.15,2013-09-06 23:58:00,
2013-09-06 18:59:00,95.6,59.2,29.96,ESE,113,1.0,7.0,30,0.00,,,0.00,Wunderground v.1.15,2013-09-06 23:59:00,
2013-09-06 19:00:00,95.6,59.2,29.96,ESE,121,0.0,7.0,30,0.00,,,0.00,Wunderground v.1.15,2013-09-07 00:00:00,
2013-09-06 19:02:00,95.4,59.1,29.96,East,88,1.0,7.0,30,0.00,,,0.00,Wunderground v.1.15,2013-09-07 00:02:00,
2013-09-06 19:03:00,95.4,59.1,29.96,East,91,2.0,7.0,30,0.00,,,0.00,Wunderground v.1.15,2013-09-07 00:03:00,
2013-09-06 19:04:00,95.1,58.8,29.96,East,94,3.0,7.0,30,0.00,,,0.00,Wunderground v.1.15,2013-09-07 00:04:00,
2013-09-06 19:05:00,95.1,58.8,29.96,ESE,109,3.0,7.0,30,0.00,,,0.00,Wunderground v.1.15,2013-09-07 00:05:00,
2013-09-06 19:06:00,95.1,59.7,29.96,East,98,2.0,7.0,31,0.00,,,0.00,Wunderground v.1.15,2013-09-07 00:06:00,
2013-09-06 19:07:00,94.9,58.6,29.96,ESE,107,2.0,7.0,30,0.00,,,0.00,Wunderground v.1.15,2013-09-07 00:07:00,
2013-09-06 19:09:00,94.9,58.6,29.96,East,90,0.0,3.0,30,0.00,,,0.00,Wunderground v.1.15,2013-09-07 00:09:00,
2013-09-06 19:10:00,94.9,58.6,29.97,ESE,105,0.0,3.0,30,0.00,,,0.00,Wunderground v.1.15,2013-09-07 00:10:00,
2013-09-06 19:12:00,94.7,59.4,29.97,East,93,4.0,10.0,31,0.00,,,0.00,Wunderground v.1.15,2013-09-07 00:12:00,
2013-09-06 19:13:00,94.5,60.1,29.97,SE,126,1.0,10.0,32,0.00,,,0.00,Wunderground v.1.15,2013-09-07 00:13:00,
2013-09-06 19:15:00,94.3,61.6,29.97,SE,125,1.0,10.0,34,0.00,,,0.00,Wunderground v.1.15,2013-09-07 00:15:00,
2013-09-06 19:16:00,94.0,61.4,29.97,SSE,148,0.0,10.0,34,0.00,,,0.00,Wunderground v.1.15,2013-09-07 00:16:00,
2013-09-06 19:17:00,94.0,61.4,29.97,SE,142,0.0,10.0,34,0.00,,,0.00,Wunderground v.1.15,2013-09-07 00:17:00,
2013-09-06 19:18:00,93.6,61.8,29.97,South,175,0.0,5.0,35,0.00,,,0.00,Wunderground v.1.15,2013-09-07 00:18:00,
2013-09-06 19:21:00,93.2,62.3,29.97,ESE,106,2.0,6.0,36,0.00,,,0.00,Wunderground v.1.15,2013-09-07 00:21:00,
2013-09-06 19:22:00,92.9,62.0,29.97,ESE,105,1.0,6.0,36,0.00,,,0.00,Wunderground v.1.15,2013-09-07 00:22:00,
2013-09-06 19:23:00,92.7,61.8,29.97,ESE,121,2.0,6.0,36,0.00,,,0.00,Wunderground v.1.15,2013-09-07 00:23:00,
2013-09-06 19:24:00,92.7,61.8,29.97,ESE,111,1.0,6.0,36,0.00,,,0.00,Wunderground v.1.15,2013-09-07 00:24:00,
2013-09-06 19:27:00,92.3,61.5,29.97,ESE,113,2.0,6.0,36,0.00,,,0.00,Wunderground v.1.15,2013-09-07 00:27:00,
2013-09-06 19:29:00,92.3,60.7,29.97,South,169,2.0,5.0,35,0.00,,,0.00,Wunderground v.1.15,2013-09-07 00:29:00,
2013-09-06 19:30:00,92.1,61.3,29.97,South,169,0.0,5.0,36,0.00,,,0.00,Wunderground v.1.15,2013-09-07 00:30:00,
2013-09-06 19:32:00,92.1,61.3,29.97,SE,133,2.0,5.0,36,0.00,,,0.00,Wunderground v.1.15,2013-09-07 00:32:00,
2013-09-06 19:34:00,91.8,61.0,29.97,SE,145,0.0,5.0,36,0.00,,,0.00,Wunderground v.1.15,2013-09-07 00:34:00,
2013-09-06 19:37:00,91.8,61.0,29.97,East,90,0.0,5.0,36,0.00,,,0.00,Wunderground v.1.15,2013-09-07 00:37:00,
2013-09-06 19:38:00,91.8,61.0,29.97,East,88,4.0,5.0,36,0.00,,,0.00,Wunderground v.1.15,2013-09-07 00:38:00,
2013-09-06 19:39:00,91.8,61.0,29.97,East,101,0.0,3.0,36,0.00,,,0.00,Wunderground v.1.15,2013-09-07 00:39:00,
2013-09-06 19:43:00,91.6,60.9,29.97,East,96,0.0,3.0,36,0.00,,,0.00,Wunderground v.1.15,2013-09-07 00:43:00,
2013-09-06 19:44:00,91.6,60.9,29.97,ESE,103,0.0,3.0,36,0.00,,,0.00,Wunderground v.1.15,2013-09-07 00:44:00,
2013-09-06 19:46:00,91.6,60.9,29.97,SE,146,0.0,4.0,36,0.00,,,0.00,Wunderground v.1.15,2013-09-07 00:46:00,
2013-09-06 19:48:00,91.6,60.9,29.97,SE,133,3.0,4.0,36,0.00,,,0.00,Wunderground v.1.15,2013-09-07 00:48:00,
2013-09-06 19:49:00,91.4,60.7,29.98,SSE,156,4.0,4.0,36,0.00,,,0.00,Wunderground v.1.15,2013-09-07 00:49:00,
2013-09-06 19:51:00,91.4,60.7,29.98,SSE,152,0.0,4.0,36,0.00,,,0.00,Wunderground v.1.15,2013-09-07 00:51:00,
2013-09-06 19:53:00,91.4,60.7,29.98,East,96,0.0,4.0,36,0.00,,,0.00,Wunderground v.1.15,2013-09-07 00:53:00,
2013-09-06 19:54:00,91.4,60.7,29.98,East,96,0.0,4.0,36,0.00,,,0.00,Wunderground v.1.15,2013-09-07 00:54:00,
2013-09-06 19:57:00,91.2,61.3,29.97,ESE,107,1.0,4.0,37,0.00,,,0.00,Wunderground v.1.15,2013-09-07 00:57:00,
2013-09-06 19:58:00,91.2,61.3,29.97,ESE,107,1.0,1.0,37,0.00,,,0.00,Wunderground v.1.15,2013-09-07 00:58:00,
2013-09-06 19:59:00,91.2,60.5,29.97,ESE,121,0.0,2.0,36,0.00,,,0.00,Wunderground v.1.15,2013-09-07 00:59:00,
2013-09-06 20:00:00,91.2,60.5,29.98,ESE,121,0.0,2.0,36,0.00,,,0.00,Wunderground v.1.15,2013-09-07 01:00:00,
2013-09-06 20:04:00,91.2,61.3,29.97,ESE,121,0.0,2.0,37,0.00,,,0.00,Wunderground v.1.15,2013-09-07 01:04:00,
2013-09-06 20:06:00,91.2,61.3,29.97,ESE,121,0.0,2.0,37,0.00,,,0.00,Wunderground v.1.15,2013-09-07 01:06:00,
2013-09-06 20:09:00,91.0,61.1,29.97,SE,128,0.0,3.0,37,0.00,,,0.00,Wunderground v.1.15,2013-09-07 01:09:00,
2013-09-06 20:10:00,91.0,61.1,29.97,SE,128,0.0,3.0,37,0.00,,,0.00,Wunderground v.1.15,2013-09-07 01:10:00,
2013-09-06 20:11:00,91.0,61.1,29.97,SE,128,0.0,3.0,37,0.00,,,0.00,Wunderground v.1.15,2013-09-07 01:11:00,
2013-09-06 20:12:00,91.0,61.1,29.97,SE,128,0.0,3.0,37,0.00,,,0.00,Wunderground v.1.15,2013-09-07 01:12:00,
2013-09-06 20:14:00,91.0,61.1,29.97,SE,128,0.0,3.0,37,0.00,,,0.00,Wunderground v.1.15,2013-09-07 01:14:00,
2013-09-06 20:15:00,91.0,61.1,29.97,SE,128,0.0,3.0,37,0.00,,,0.00,Wunderground v.1.15,2013-09-07 01:15:00,
2013-09-06 20:16:00,91.0,61.1,29.97,SE,128,0.0,3.0,37,0.00,,,0.00,Wunderground v.1.15,2013-09-07 01:16:00,
2013-09-06 20:17:00,91.0,61.1,29.98,SE,128,0.0,3.0,37,0.00,,,0.00,Wunderground v.1.15,2013-09-07 01:17:00,
2013-09-06 20:19:00,91.0,61.1,29.98,SE,125,1.0,3.0,37,0.00,,,0.00,Wunderground v.1.15,2013-09-07 01:19:00,
2013-09-06 20:20:00,91.0,61.1,29.98,SE,125,0.0,3.0,37,0.00,,,0.00,Wunderground v.1.15,2013-09-07 01:20:00,
2013-09-06 20:21:00,91.0,61.1,29.98,SE,125,0.0,3.0,37,0.00,,,0.00,Wunderground v.1.15,2013-09-07 01:21:00,
2013-09-06 20:23:00,91.0,61.1,29.98,SE,125,0.0,3.0,37,0.00,,,0.00,Wunderground v.1.15,2013-09-07 01:23:00,
2013-09-06 20:24:00,91.0,61.1,29.98,SE,125,0.0,3.0,37,0.00,,,0.00,Wunderground v.1.15,2013-09-07 01:24:00,
2013-09-06 20:25:00,91.0,61.1,29.98,SE,125,0.0,3.0,37,0.00,,,0.00,Wunderground v.1.15,2013-09-07 01:25:00,
2013-09-06 20:26:00,91.0,61.1,29.98,SE,125,0.0,3.0,37,0.00,,,0.00,Wunderground v.1.15,2013-09-07 01:26:00,
2013-09-06 20:27:00,91.0,61.1,29.98,SE,125,0.0,3.0,37,0.00,,,0.00,Wunderground v.1.15,2013-09-07 01:27:00,
2013-09-06 20:28:00,90.7,60.8,29.98,SE,124,0.0,0.0,37,0.00,,,0.00,Wunderground v.1.15,2013-09-07 01:28:00,
2013-09-06 20:29:00,90.7,60.8,29.98,SE,124,1.0,1.0,37,0.00,,,0.00,Wunderground v.1.15,2013-09-07 01:29:00,
2013-09-06 20:30:00,90.7,60.8,29.98,SE,124,0.0,1.0,37,0.00,,,0.00,Wunderground v.1.15,2013-09-07 01:30:00,
2013-09-06 20:31:00,90.7,60.8,29.98,SE,124,0.0,1.0,37,0.00,,,0.00,Wunderground v.1.15,2013-09-07 01:31:00,
2013-09-06 20:32:00,90.7,60.8,29.98,SE,124,0.0,1.0,37,0.00,,,0.00,Wunderground v.1.15,2013-09-07 01:32:00,
2013-09-06 20:35:00,90.7,60.8,29.98,SE,124,0.0,1.0,37,0.00,,,0.00,Wunderground v.1.15,2013-09-07 01:35:00,
2013-09-06 20:37:00,90.7,60.8,29.98,SE,124,0.0,1.0,37,0.00,,,0.00,Wunderground v.1.15,2013-09-07 01:37:00,
2013-09-06 20:38:00,90.7,60.8,29.98,SE,124,0.0,1.0,37,0.00,,,0.00,Wunderground v.1.15,2013-09-07 01:38:00,
2013-09-06 20:39:00,90.7,60.8,29.98,SE,124,0.0,1.0,37,0.00,,,0.00,Wunderground v.1.15,2013-09-07 01:39:00,
2013-09-06 20:40:00,90.7,60.8,29.98,SE,124,0.0,1.0,37,0.00,,,0.00,Wunderground v.1.15,2013-09-07 01:40:00,
2013-09-06 20:41:00,90.7,60.8,29.98,SE,124,1.0,1.0,37,0.00,,,0.00,Wunderground v.1.15,2013-09-07 01:41:00,
2013-09-06 20:42:00,90.7,60.8,29.98,SE,124,2.0,3.0,37,0.00,,,0.00,Wunderground v.1.15,2013-09-07 01:42:00,
2013-09-06 20:43:00,90.7,61.6,29.98,SE,124,1.0,3.0,38,0.00,,,0.00,Wunderground v.1.15,2013-09-07 01:43:00,
2013-09-06 20:44:00,90.7,61.6,29.98,SE,124,3.0,4.0,38,0.00,,,0.00,Wunderground v.1.15,2013-09-07 01:44:00,
2013-09-06 20:45:00,90.7,61.6,29.98,SE,124,1.0,4.0,38,0.00,,,0.00,Wunderground v.1.15,2013-09-07 01:45:00,
2013-09-06 20:46:00,90.5,61.4,29.98,SE,124,0.0,4.0,38,0.00,,,0.00,Wunderground v.1.15,2013-09-07 01:46:00,
2013-09-06 20:47:00,90.5,61.4,29.98,SE,124,0.0,4.0,38,0.00,,,0.00,Wunderground v.1.15,2013-09-07 01:47:00,
2013-09-06 20:49:00,90.5,61.4,29.98,SE,124,2.0,2.0,38,0.00,,,0.00,Wunderground v.1.15,2013-09-07 01:49:00,
2013-09-06 20:50:00,90.5,61.4,29.98,SE,124,1.0,2.0,38,0.00,,,0.00,Wunderground v.1.15,2013-09-07 01:50:00,
2013-09-06 20:51:00,90.5,61.4,29.98,SE,124,0.0,2.0,38,0.00,,,0.00,Wunderground v.1.15,2013-09-07 01:51:00,
2013-09-06 20:52:00,90.3,61.2,29.98,SE,124,0.0,2.0,38,0.00,,,0.00,Wunderground v.1.15,2013-09-07 01:52:00,
2013-09-06 20:54:00,90.3,61.2,29.98,SE,124,0.0,3.0,38,0.00,,,0.00,Wunderground v.1.15,2013-09-07 01:54:00,
2013-09-06 20:55:00,90.3,61.2,29.98,SE,124,0.0,3.0,38,0.00,,,0.00,Wunderground v.1.15,2013-09-07 01:55:00,
2013-09-06 20:56:00,90.3,61.2,29.98,SE,124,0.0,3.0,38,0.00,,,0.00,Wunderground v.1.15,2013-09-07 01:56:00,
2013-09-06 20:57:00,90.3,62.0,29.98,SE,124,0.0,3.0,39,0.00,,,0.00,Wunderground v.1.15,2013-09-07 01:57:00,
2013-09-06 21:00:00,90.1,61.1,29.98,SE,124,0.0,1.0,38,0.00,,,0.00,Wunderground v.1.15,2013-09-07 02:00:00,
2013-09-06 21:01:00,90.1,61.8,29.98,SE,124,0.0,1.0,39,0.00,,,0.00,Wunderground v.1.15,2013-09-07 02:01:00,
2013-09-06 21:02:00,90.1,61.8,29.98,SE,124,0.0,1.0,39,0.00,,,0.00,Wunderground v.1.15,2013-09-07 02:02:00,
2013-09-06 21:04:00,89.9,61.6,29.98,SE,124,0.0,1.0,39,0.00,,,0.00,Wunderground v.1.15,2013-09-07 02:04:00,
2013-09-06 21:06:00,89.9,61.6,29.98,SE,124,1.0,1.0,39,0.00,,,0.00,Wunderground v.1.15,2013-09-07 02:06:00,
2013-09-06 21:07:00,89.9,61.6,29.98,ESE,123,0.0,2.0,39,0.00,,,0.00,Wunderground v.1.15,2013-09-07 02:07:00,
2013-09-06 21:08:00,89.9,61.6,29.98,ESE,123,0.0,0.0,39,0.00,,,0.00,Wunderground v.1.15,2013-09-07 02:08:00,
2013-09-06 21:12:00,89.7,61.5,29.98,ESE,119,1.0,3.0,39,0.00,,,0.00,Wunderground v.1.15,2013-09-07 02:12:00,
2013-09-06 21:13:00,89.7,61.5,29.98,ESE,119,0.0,3.0,39,0.00,,,0.00,Wunderground v.1.15,2013-09-07 02:13:00,
2013-09-06 21:14:00,89.7,61.5,29.98,ESE,119,3.0,3.0,39,0.00,,,0.00,Wunderground v.1.15,2013-09-07 02:14:00,
2013-09-06 21:17:00,89.5,62.0,29.99,ESE,119,0.0,3.0,40,0.00,,,0.00,Wunderground v.1.15,2013-09-07 02:17:00,
2013-09-06 21:18:00,89.5,62.0,29.98,ESE,119,0.0,3.0,40,0.00,,,0.00,Wunderground v.1.15,2013-09-07 02:18:00,
2013-09-06 21:19:00,89.5,61.3,29.98,ESE,119,0.0,0.0,39,0.00,,,0.00,Wunderground v.1.15,2013-09-07 02:19:00,
2013-09-06 21:20:00,89.5,61.3,29.98,ESE,119,0.0,0.0,39,0.00,,,0.00,Wunderground v.1.15,2013-09-07 02:20:00,
2013-09-06 21:22:00,89.5,62.0,29.98,ESE,119,0.0,0.0,40,0.00,,,0.00,Wunderground v.1.15,2013-09-07 02:22:00,
2013-09-06 21:23:00,89.5,62.0,29.99,ESE,119,0.0,0.0,40,0.00,,,0.00,Wunderground v.1.15,2013-09-07 02:23:00,
2013-09-06 21:25:00,89.3,61.8,29.98,ESE,119,0.0,0.0,40,0.00,,,0.00,Wunderground v.1.15,2013-09-07 02:25:00,
2013-09-06 21:27:00,89.3,61.8,29.99,ESE,119,1.0,1.0,40,0.00,,,0.00,Wunderground v.1.15,2013-09-07 02:27:00,
2013-09-06 21:28:00,89.3,61.8,29.99,ESE,119,0.0,1.0,40,0.00,,,0.00,Wunderground v.1.15,2013-09-07 02:28:00,
2013-09-06 21:29:00,89.3,61.8,29.99,ESE,119,0.0,0.0,40,0.00,,,0.00,Wunderground v.1.15,2013-09-07 02:29:00,
2013-09-06 21:32:00,89.3,61.8,29.99,ESE,119,0.0,1.0,40,0.00,,,0.00,Wunderground v.1.15,2013-09-07 02:32:00,
2013-09-06 21:33:00,89.3,61.8,29.99,ESE,119,0.0,1.0,40,0.00,,,0.00,Wunderground v.1.15,2013-09-07 02:33:00,
2013-09-06 21:34:00,89.0,61.5,29.99,ESE,118,0.0,2.0,40,0.00,,,0.00,Wunderground v.1.15,2013-09-07 02:34:00,
2013-09-06 21:37:00,89.0,61.5,29.99,ESE,118,0.0,3.0,40,0.00,,,0.00,Wunderground v.1.15,2013-09-07 02:37:00,
2013-09-06 21:38:00,89.0,61.5,29.99,ESE,118,0.0,1.0,40,0.00,,,0.00,Wunderground v.1.15,2013-09-07 02:38:00,
2013-09-06 21:40:00,88.8,61.4,29.99,ESE,119,0.0,1.0,40,0.00,,,0.00,Wunderground v.1.15,2013-09-07 02:40:00,
2013-09-06 21:41:00,88.8,62.1,29.99,ESE,119,0.0,1.0,41,0.00,,,0.00,Wunderground v.1.15,2013-09-07 02:41:00,
2013-09-06 21:43:00,88.8,62.1,29.99,ESE,119,0.0,1.0,41,0.00,,,0.00,Wunderground v.1.15,2013-09-07 02:43:00,
2013-09-06 21:44:00,88.8,62.1,29.99,ESE,119,0.0,1.0,41,0.00,,,0.00,Wunderground v.1.15,2013-09-07 02:44:00,
2013-09-06 21:45:00,88.6,61.9,29.99,ESE,119,0.0,1.0,41,0.00,,,0.00,Wunderground v.1.15,2013-09-07 02:45:00,
2013-09-06 21:47:00,88.6,61.9,29.99,ESE,119,0.0,1.0,41,0.00,,,0.00,Wunderground v.1.15,2013-09-07 02:47:00,
2013-09-06 21:48:00,88.6,61.9,29.99,ESE,119,0.0,1.0,41,0.00,,,0.00,Wunderground v.1.15,2013-09-07 02:48:00,
2013-09-06 21:49:00,88.6,61.9,29.99,ESE,119,1.0,1.0,41,0.00,,,0.00,Wunderground v.1.15,2013-09-07 02:49:00,
2013-09-06 21:50:00,88.6,61.9,29.99,ESE,119,0.0,3.0,41,0.00,,,0.00,Wunderground v.1.15,2013-09-07 02:50:00,
2013-09-06 21:52:00,88.4,61.7,29.99,ESE,119,0.0,3.0,41,0.00,,,0.00,Wunderground v.1.15,2013-09-07 02:52:00,
2013-09-06 21:53:00,88.4,61.7,29.99,ESE,119,0.0,3.0,41,0.00,,,0.00,Wunderground v.1.15,2013-09-07 02:53:00,
2013-09-06 21:54:00,88.4,61.7,29.99,ESE,119,0.0,3.0,41,0.00,,,0.00,Wunderground v.1.15,2013-09-07 02:54:00,
2013-09-06 21:55:00,88.4,61.7,29.99,ESE,119,0.0,3.0,41,0.00,,,0.00,Wunderground v.1.15,2013-09-07 02:55:00,
2013-09-06 21:58:00,88.2,61.5,29.99,ESE,119,0.0,3.0,41,0.00,,,0.00,Wunderground v.1.15,2013-09-07 02:58:00,
2013-09-06 21:59:00,88.2,61.5,29.99,ESE,119,0.0,0.0,41,0.00,,,0.00,Wunderground v.1.15,2013-09-07 02:59:00,
2013-09-06 22:00:00,88.2,61.5,29.99,ESE,119,0.0,0.0,41,0.00,,,0.00,Wunderground v.1.15,2013-09-07 03:00:00,
2013-09-06 22:01:00,88.2,61.5,29.99,ESE,119,0.0,0.0,41,0.00,,,0.00,Wunderground v.1.15,2013-09-07 03:01:00,
2013-09-06 22:04:00,88.0,61.3,29.99,ESE,119,0.0,0.0,41,0.00,,,0.00,Wunderground v.1.15,2013-09-07 03:04:00,
2013-09-06 22:05:00,88.0,61.3,29.99,ESE,119,0.0,0.0,41,0.00,,,0.00,Wunderground v.1.15,2013-09-07 03:05:00,
2013-09-06 22:06:00,88.0,61.3,29.99,ESE,119,0.0,0.0,41,0.00,,,0.00,Wunderground v.1.15,2013-09-07 03:06:00,
2013-09-06 22:07:00,88.0,61.3,29.99,ESE,119,0.0,0.0,41,0.00,,,0.00,Wunderground v.1.15,2013-09-07 03:07:00,
2013-09-06 22:09:00,87.8,61.2,29.99,ESE,119,0.0,0.0,41,0.00,,,0.00,Wunderground v.1.15,2013-09-07 03:09:00,
2013-09-06 22:11:00,87.8,61.2,29.99,ESE,119,0.0,0.0,41,0.00,,,0.00,Wunderground v.1.15,2013-09-07 03:11:00,
2013-09-06 22:12:00,87.8,61.2,29.99,ESE,119,0.0,0.0,41,0.00,,,0.00,Wunderground v.1.15,2013-09-07 03:12:00,
2013-09-06 22:16:00,87.6,61.7,29.99,ESE,119,0.0,1.0,42,0.00,,,0.00,Wunderground v.1.15,2013-09-07 03:16:00,
2013-09-06 22:17:00,87.6,61.7,29.99,ESE,119,0.0,1.0,42,0.00,,,0.00,Wunderground v.1.15,2013-09-07 03:17:00,
2013-09-06 22:18:00,87.6,61.7,29.99,ESE,119,0.0,1.0,42,0.00,,,0.00,Wunderground v.1.15,2013-09-07 03:18:00,
2013-09-06 22:22:00,87.4,61.5,29.99,ESE,119,0.0,1.0,42,0.00,,,0.00,Wunderground v.1.15,2013-09-07 03:22:00,
2013-09-06 22:24:00,87.4,61.5,29.99,ESE,119,0.0,1.0,42,0.00,,,0.00,Wunderground v.1.15,2013-09-07 03:24:00,
2013-09-06 22:25:00,87.4,61.5,29.99,ESE,119,0.0,1.0,42,0.00,,,0.00,Wunderground v.1.15,2013-09-07 03:25:00,
2013-09-06 22:27:00,87.4,61.5,29.99,ESE,119,0.0,1.0,42,0.00,,,0.00,Wunderground v.1.15,2013-09-07 03:27:00,
2013-09-06 22:29:00,87.2,61.3,29.99,ESE,119,0.0,1.0,42,0.00,,,0.00,Wunderground v.1.15,2013-09-07 03:29:00,
2013-09-06 22:30:00,87.2,61.3,29.99,ESE,119,0.0,1.0,42,0.00,,,0.00,Wunderground v.1.15,2013-09-07 03:30:00,
2013-09-06 22:31:00,87.2,61.3,29.99,ESE,119,0.0,1.0,42,0.00,,,0.00,Wunderground v.1.15,2013-09-07 03:31:00,
2013-09-06 22:32:00,87.2,61.3,29.99,ESE,119,0.0,1.0,42,0.00,,,0.00,Wunderground v.1.15,2013-09-07 03:32:00,
2013-09-06 22:34:00,87.0,61.1,29.99,ESE,119,0.0,1.0,42,0.00,,,0.00,Wunderground v.1.15,2013-09-07 03:34:00,
2013-09-06 22:35:00,87.0,61.1,29.99,ESE,119,0.0,2.0,42,0.00,,,0.00,Wunderground v.1.15,2013-09-07 03:35:00,
2013-09-06 22:36:00,87.0,61.8,29.99,ESE,119,0.0,2.0,43,0.00,,,0.00,Wunderground v.1.15,2013-09-07 03:36:00,
2013-09-06 22:37:00,87.0,61.1,29.99,ESE,119,0.0,2.0,42,0.00,,,0.00,Wunderground v.1.15,2013-09-07 03:37:00,
2013-09-06 22:39:00,86.7,60.9,29.99,ESE,121,2.0,3.0,42,0.00,,,0.00,Wunderground v.1.15,2013-09-07 03:39:00,
2013-09-06 22:41:00,86.7,60.9,29.99,ESE,121,0.0,3.0,42,0.00,,,0.00,Wunderground v.1.15,2013-09-07 03:41:00,
2013-09-06 22:42:00,86.7,60.9,29.99,ESE,121,0.0,3.0,42,0.00,,,0.00,Wunderground v.1.15,2013-09-07 03:42:00,
2013-09-06 22:43:00,86.7,60.9,29.99,ESE,121,0.0,3.0,42,0.00,,,0.00,Wunderground v.1.15,2013-09-07 03:43:00,
2013-09-06 22:46:00,86.5,61.3,29.99,ESE,121,0.0,3.0,43,0.00,,,0.00,Wunderground v.1.15,2013-09-07 03:46:00,
2013-09-06 22:47:00,86.5,61.3,29.99,ESE,121,0.0,3.0,43,0.00,,,0.00,Wunderground v.1.15,2013-09-07 03:47:00,
2013-09-06 22:48:00,86.5,61.3,29.99,ESE,121,0.0,0.0,43,0.00,,,0.00,Wunderground v.1.15,2013-09-07 03:48:00,
2013-09-06 22:49:00,86.5,61.3,29.99,ESE,121,0.0,1.0,43,0.00,,,0.00,Wunderground v.1.15,2013-09-07 03:49:00,
2013-09-06 22:51:00,86.5,61.3,29.98,ESE,121,0.0,2.0,43,0.00,,,0.00,Wunderground v.1.15,2013-09-07 03:51:00,
2013-09-06 22:52:00,86.3,61.2,29.98,ESE,121,0.0,2.0,43,0.00,,,0.00,Wunderground v.1.15,2013-09-07 03:52:00,
2013-09-06 22:53:00,86.3,61.2,29.99,ESE,121,0.0,2.0,43,0.00,,,0.00,Wunderground v.1.15,2013-09-07 03:53:00,
2013-09-06 22:54:00,86.3,61.2,29.99,ESE,121,0.0,2.0,43,0.00,,,0.00,Wunderground v.1.15,2013-09-07 03:54:00,
2013-09-06 22:55:00,86.3,61.2,29.99,ESE,121,0.0,2.0,43,0.00,,,0.00,Wunderground v.1.15,2013-09-07 03:55:00,
2013-09-06 22:57:00,86.3,61.2,29.99,ESE,121,0.0,2.0,43,0.00,,,0.00,Wunderground v.1.15,2013-09-07 03:57:00,
2013-09-06 22:58:00,86.1,61.0,29.98,ESE,121,1.0,1.0,43,0.00,,,0.00,Wunderground v.1.15,2013-09-07 03:58:00,
2013-09-06 22:59:00,86.1,61.0,29.98,ESE,121,0.0,1.0,43,0.00,,,0.00,Wunderground v.1.15,2013-09-07 03:59:00,
2013-09-06 23:00:00,86.1,61.0,29.99,ESE,121,0.0,1.0,43,0.00,,,0.00,Wunderground v.1.15,2013-09-07 04:00:00,
2013-09-06 23:01:00,86.1,61.0,29.99,ESE,121,0.0,1.0,43,0.00,,,0.00,Wunderground v.1.15,2013-09-07 04:01:00,
2013-09-06 23:02:00,86.1,61.0,29.98,ESE,121,0.0,1.0,43,0.00,,,0.00,Wunderground v.1.15,2013-09-07 04:02:00,
2013-09-06 23:06:00,85.9,61.5,29.99,ESE,121,1.0,1.0,44,0.00,,,0.00,Wunderground v.1.15,2013-09-07 04:06:00,
2013-09-06 23:08:00,85.9,61.5,29.98,ESE,121,0.0,0.0,44,0.00,,,0.00,Wunderground v.1.15,2013-09-07 04:08:00,
2013-09-06 23:11:00,85.9,61.5,29.99,ESE,121,0.0,0.0,44,0.00,,,0.00,Wunderground v.1.15,2013-09-07 04:11:00,
2013-09-06 23:13:00,85.7,61.3,29.99,ESE,121,0.0,0.0,44,0.00,,,0.00,Wunderground v.1.15,2013-09-07 04:13:00,
2013-09-06 23:15:00,85.7,61.3,29.99,ESE,121,0.0,1.0,44,0.00,,,0.00,Wunderground v.1.15,2013-09-07 04:15:00,
2013-09-06 23:16:00,85.7,61.3,29.99,ESE,121,0.0,1.0,44,0.00,,,0.00,Wunderground v.1.15,2013-09-07 04:16:00,
2013-09-06 23:17:00,85.7,61.3,29.98,ESE,121,0.0,1.0,44,0.00,,,0.00,Wunderground v.1.15,2013-09-07 04:17:00,
2013-09-06 23:20:00,85.5,61.1,29.99,ESE,121,0.0,0.0,44,0.00,,,0.00,Wunderground v.1.15,2013-09-07 04:20:00,
2013-09-06 23:21:00,85.5,61.1,29.98,ESE,121,0.0,0.0,44,0.00,,,0.00,Wunderground v.1.15,2013-09-07 04:21:00,
2013-09-06 23:22:00,85.5,61.1,29.98,ESE,121,0.0,0.0,44,0.00,,,0.00,Wunderground v.1.15,2013-09-07 04:22:00,
2013-09-06 23:23:00,85.5,61.1,29.98,ESE,121,0.0,0.0,44,0.00,,,0.00,Wunderground v.1.15,2013-09-07 04:23:00,
2013-09-06 23:26:00,85.5,61.1,29.99,ESE,121,0.0,1.0,44,0.00,,,0.00,Wunderground v.1.15,2013-09-07 04:26:00,
2013-09-06 23:27:00,85.5,61.1,29.98,ESE,121,0.0,1.0,44,0.00,,,0.00,Wunderground v.1.15,2013-09-07 04:27:00,
2013-09-06 23:28:00,85.5,61.1,29.98,ESE,121,0.0,1.0,44,0.00,,,0.00,Wunderground v.1.15,2013-09-07 04:28:00,
2013-09-06 23:31:00,85.3,60.9,29.99,ESE,121,0.0,1.0,44,0.00,,,0.00,Wunderground v.1.15,2013-09-07 04:31:00,
2013-09-06 23:32:00,85.3,60.9,29.99,ESE,121,0.0,1.0,44,0.00,,,0.00,Wunderground v.1.15,2013-09-07 04:32:00,
2013-09-06 23:33:00,85.3,60.9,29.98,ESE,121,0.0,1.0,44,0.00,,,0.00,Wunderground v.1.15,2013-09-07 04:33:00,
2013-09-06 23:34:00,85.3,60.9,29.99,ESE,121,0.0,1.0,44,0.00,,,0.00,Wunderground v.1.15,2013-09-07 04:34:00,
2013-09-06 23:37:00,85.1,60.7,29.99,ESE,121,0.0,1.0,44,0.00,,,0.00,Wunderground v.1.15,2013-09-07 04:37:00,
2013-09-06 23:38:00,85.1,60.7,29.99,ESE,121,0.0,1.0,44,0.00,,,0.00,Wunderground v.1.15,2013-09-07 04:38:00,
2013-09-06 23:39:00,85.1,60.7,29.99,ESE,121,0.0,1.0,44,0.00,,,0.00,Wunderground v.1.15,2013-09-07 04:39:00,
2013-09-06 23:41:00,85.1,60.7,29.98,ESE,121,0.0,1.0,44,0.00,,,0.00,Wunderground v.1.15,2013-09-07 04:41:00,
2013-09-06 23:42:00,85.1,60.7,29.98,ESE,121,0.0,1.0,44,0.00,,,0.00,Wunderground v.1.15,2013-09-07 04:42:00,
2013-09-06 23:43:00,85.1,60.7,29.98,ESE,121,0.0,1.0,44,0.00,,,0.00,Wunderground v.1.15,2013-09-07 04:43:00,
2013-09-06 23:44:00,85.1,60.7,29.98,ESE,121,0.0,1.0,44,0.00,,,0.00,Wunderground v.1.15,2013-09-07 04:44:00,
2013-09-06 23:47:00,84.9,60.6,29.98,ESE,121,0.0,1.0,44,0.00,,,0.00,Wunderground v.1.15,2013-09-07 04:47:00,
2013-09-06 23:48:00,84.9,60.6,29.98,ESE,121,1.0,1.0,44,0.00,,,0.00,Wunderground v.1.15,2013-09-07 04:48:00,
2013-09-06 23:49:00,84.9,60.6,29.98,ESE,121,0.0,1.0,44,0.00,,,0.00,Wunderground v.1.15,2013-09-07 04:49:00,
2013-09-06 23:50:00,84.9,61.2,29.98,ESE,121,0.0,1.0,45,0.00,,,0.00,Wunderground v.1.15,2013-09-07 04:50:00,
2013-09-06 23:52:00,84.9,61.2,29.98,ESE,121,0.0,1.0,45,0.00,,,0.00,Wunderground v.1.15,2013-09-07 04:52:00,
2013-09-06 23:53:00,84.7,61.0,29.98,ESE,121,0.0,1.0,45,0.00,,,0.00,Wunderground v.1.15,2013-09-07 04:53:00,
2013-09-06 23:54:00,84.7,61.0,29.98,ESE,121,0.0,1.0,45,0.00,,,0.00,Wunderground v.1.15,2013-09-07 04:54:00,
2013-09-06 23:55:00,84.7,61.0,29.99,ESE,121,0.0,1.0,45,0.00,,,0.00,Wunderground v.1.15,2013-09-07 04:55:00,
2013-09-06 23:56:00,84.7,61.0,29.99,ESE,121,0.0,1.0,45,0.00,,,0.00,Wunderground v.1.15,2013-09-07 04:56:00,
2013-09-06 23:57:00,84.7,61.0,29.99,ESE,121,0.0,1.0,45,0.00,,,0.00,Wunderground v.1.15,2013-09-07 04:57:00,
2013-09-06 23:59:00,84.7,61.0,29.99,ESE,121,0.0,0.0,45,0.00,,,0.00,Wunderground v.1.15,2013-09-07 04:59:00,